Time,TemperatureF,DewpointF,PressureIn,WindDirection,WindDirectionDegrees,WindSpeedMPH,WindSpeedGustMPH,Humidity,HourlyPrecipIn,Conditions,Clouds,dailyrainin,SoftwareType,DateUTC
2013-04-22 00:00:00,42.7,34.0,29.55,ESE,121,1.0,7.0,71,0.01,,,1.67,WUHU216DAVISVP2,2013-04-22 04:00:00,
2013-04-22 00:01:00,42.7,34.0,29.54,ESE,121,1.0,7.0,71,0.01,,,1.67,WUHU216DAVISVP2,2013-04-22 04:01:00,
2013-04-22 00:06:00,42.5,33.8,29.54,SE,132,3.0,6.0,71,0.01,,,1.67,WUHU216DAVISVP2,2013-04-22 04:06:00,
2013-04-22 00:11:00,42.4,33.7,29.54,ESE,120,1.0,5.0,71,0.01,,,1.67,WUHU216DAVISVP2,2013-04-22 04:11:00,
2013-04-22 00:12:00,42.4,33.7,29.54,ESE,121,1.0,5.0,71,0.01,,,0.00,WUHU216DAVISVP2,2013-04-22 04:12:00,
2013-04-22 00:16:00,42.4,33.7,29.54,ESE,119,2.0,6.0,71,0.01,,,0.00,WUHU216DAVISVP2,2013-04-22 04:16:00,
2013-04-22 00:17:00,42.4,33.7,29.54,SE,143,4.0,6.0,71,0.01,,,0.00,WUHU216DAVISVP2,2013-04-22 04:17:00,
2013-04-22 00:21:00,42.3,33.6,29.54,ESE,117,4.0,6.0,71,0.01,,,0.00,WUHU216DAVISVP2,2013-04-22 04:21:00,
2013-04-22 00:22:00,42.3,33.6,29.54,ESE,113,2.0,6.0,71,0.01,,,0.00,WUHU216DAVISVP2,2013-04-22 04:22:00,
2013-04-22 00:26:00,42.3,33.6,29.54,SE,125,2.0,7.0,71,0.01,,,0.00,WUHU216DAVISVP2,2013-04-22 04:26:00,
2013-04-22 00:27:00,42.2,33.5,29.54,SE,130,2.0,7.0,71,0.01,,,0.00,WUHU216DAVISVP2,2013-04-22 04:27:00,
2013-04-22 00:31:00,42.2,33.9,29.54,SE,128,1.0,7.0,72,0.02,,,0.01,WUHU216DAVISVP2,2013-04-22 04:31:00,
2013-04-22 00:32:00,42.2,33.9,29.54,ESE,112,5.0,7.0,72,0.02,,,0.01,WUHU216DAVISVP2,2013-04-22 04:32:00,
2013-04-22 00:36:00,42.3,33.6,29.54,SE,129,4.0,10.0,71,0.02,,,0.01,WUHU216DAVISVP2,2013-04-22 04:36:00,
2013-04-22 00:37:00,42.3,33.6,29.54,ESE,104,5.0,10.0,71,0.02,,,0.01,WUHU216DAVISVP2,2013-04-22 04:37:00,
2013-04-22 00:38:00,42.3,33.6,29.54,SE,130,4.0,10.0,71,0.02,,,0.01,WUHU216DAVISVP2,2013-04-22 04:38:00,
2013-04-22 00:42:00,42.3,33.6,29.54,ESE,110,5.0,10.0,71,0.02,,,0.01,WUHU216DAVISVP2,2013-04-22 04:42:00,
2013-04-22 00:43:00,42.3,33.6,29.54,SE,125,7.0,10.0,71,0.02,,,0.01,WUHU216DAVISVP2,2013-04-22 04:43:00,
2013-04-22 00:47:00,42.2,33.5,29.54,ESE,115,4.0,10.0,71,0.02,,,0.01,WUHU216DAVISVP2,2013-04-22 04:47:00,
2013-04-22 00:48:00,42.2,33.5,29.54,ESE,117,5.0,10.0,71,0.02,,,0.01,WUHU216DAVISVP2,2013-04-22 04:48:00,
2013-04-22 00:52:00,41.9,33.6,29.54,SE,126,5.0,10.0,72,0.02,,,0.01,WUHU216DAVISVP2,2013-04-22 04:52:00,
2013-04-22 00:53:00,41.9,33.6,29.54,ESE,108,4.0,10.0,72,0.02,,,0.01,WUHU216DAVISVP2,2013-04-22 04:53:00,
2013-04-22 00:57:00,41.7,33.8,29.54,ESE,110,6.0,10.0,73,0.01,,,0.01,WUHU216DAVISVP2,2013-04-22 04:57:00,
2013-04-22 00:58:00,41.6,33.7,29.54,ESE,118,8.0,10.0,73,0.01,,,0.01,WUHU216DAVISVP2,2013-04-22 04:58:00,
2013-04-22 01:02:00,41.5,33.9,29.54,ESE,117,8.0,11.0,74,0.01,,,0.01,WUHU216DAVISVP2,2013-04-22 05:02:00,
2013-04-22 01:03:00,41.5,33.9,29.54,ESE,109,8.0,11.0,74,0.01,,,0.01,WUHU216DAVISVP2,2013-04-22 05:03:00,
2013-04-22 01:07:00,41.3,34.0,29.54,ESE,114,5.0,11.0,75,0.01,,,0.01,WUHU216DAVISVP2,2013-04-22 05:07:00,
2013-04-22 01:08:00,41.3,34.0,29.54,ESE,105,9.0,11.0,75,0.01,,,0.01,WUHU216DAVISVP2,2013-04-22 05:08:00,
2013-04-22 01:12:00,41.1,34.2,29.54,ESE,113,9.0,11.0,76,0.01,,,0.01,WUHU216DAVISVP2,2013-04-22 05:12:00,
2013-04-22 01:13:00,41.1,34.2,29.54,SE,128,8.0,11.0,76,0.01,,,0.01,WUHU216DAVISVP2,2013-04-22 05:13:00,
2013-04-22 01:14:00,41.1,34.2,29.53,SE,127,8.0,11.0,76,0.01,,,0.01,WUHU216DAVISVP2,2013-04-22 05:14:00,
2013-04-22 01:18:00,41.0,34.1,29.53,ESE,122,4.0,11.0,76,0.01,,,0.01,WUHU216DAVISVP2,2013-04-22 05:18:00,
2013-04-22 01:19:00,40.9,34.0,29.53,ESE,112,5.0,11.0,76,0.01,,,0.01,WUHU216DAVISVP2,2013-04-22 05:19:00,
2013-04-22 01:23:00,40.7,34.1,29.53,SE,129,6.0,11.0,77,0.01,,,0.01,WUHU216DAVISVP2,2013-04-22 05:23:00,
2013-04-22 01:24:00,40.7,34.1,29.53,ESE,110,4.0,11.0,77,0.01,,,0.01,WUHU216DAVISVP2,2013-04-22 05:24:00,
2013-04-22 01:28:00,40.6,34.3,29.53,ESE,114,4.0,11.0,78,0.01,,,0.01,WUHU216DAVISVP2,2013-04-22 05:28:00,
2013-04-22 01:29:00,40.6,34.3,29.53,SE,135,8.0,11.0,78,0.01,,,0.01,WUHU216DAVISVP2,2013-04-22 05:29:00,
2013-04-22 01:33:00,40.5,34.2,29.53,ESE,112,4.0,11.0,78,0.00,,,0.01,WUHU216DAVISVP2,2013-04-22 05:33:00,
2013-04-22 01:34:00,40.5,34.2,29.53,ESE,122,3.0,11.0,78,0.00,,,0.01,WUHU216DAVISVP2,2013-04-22 05:34:00,
2013-04-22 01:38:00,40.4,34.4,29.53,SE,127,5.0,11.0,79,0.00,,,0.01,WUHU216DAVISVP2,2013-04-22 05:38:00,
2013-04-22 01:39:00,40.3,34.3,29.53,ESE,110,6.0,11.0,79,0.00,,,0.01,WUHU216DAVISVP2,2013-04-22 05:39:00,
2013-04-22 01:40:00,40.3,34.3,29.53,ESE,114,5.0,11.0,79,0.00,,,0.01,WUHU216DAVISVP2,2013-04-22 05:40:00,
2013-04-22 01:43:00,40.1,34.4,29.53,ESE,123,5.0,11.0,80,0.00,,,0.01,WUHU216DAVISVP2,2013-04-22 05:43:00,
2013-04-22 01:44:00,40.1,34.4,29.53,ESE,116,5.0,11.0,80,0.00,,,0.01,WUHU216DAVISVP2,2013-04-22 05:44:00,
2013-04-22 01:45:00,40.1,34.4,29.53,SE,135,5.0,11.0,80,0.00,,,0.01,WUHU216DAVISVP2,2013-04-22 05:45:00,
2013-04-22 01:48:00,40.0,34.3,29.53,ESE,118,6.0,11.0,80,0.01,,,0.02,WUHU216DAVISVP2,2013-04-22 05:48:00,
2013-04-22 01:49:00,40.0,34.3,29.53,ESE,108,9.0,11.0,80,0.01,,,0.02,WUHU216DAVISVP2,2013-04-22 05:49:00,
2013-04-22 01:50:00,39.9,34.2,29.53,ESE,123,6.0,11.0,80,0.01,,,0.02,WUHU216DAVISVP2,2013-04-22 05:50:00,
2013-04-22 01:53:00,39.9,34.2,29.53,ESE,108,6.0,10.0,80,0.01,,,0.02,WUHU216DAVISVP2,2013-04-22 05:53:00,
2013-04-22 01:54:00,39.8,34.2,29.53,ESE,102,10.0,10.0,80,0.01,,,0.02,WUHU216DAVISVP2,2013-04-22 05:54:00,
2013-04-22 01:55:00,39.8,34.2,29.53,ESE,119,4.0,10.0,80,0.01,,,0.02,WUHU216DAVISVP2,2013-04-22 05:55:00,
2013-04-22 01:59:00,39.7,34.1,29.53,ESE,112,6.0,10.0,80,0.01,,,0.02,WUHU216DAVISVP2,2013-04-22 05:59:00,
2013-04-22 02:00:00,39.7,34.4,29.53,ESE,118,5.0,10.0,81,0.01,,,0.02,WUHU216DAVISVP2,2013-04-22 06:00:00,
2013-04-22 02:04:00,39.6,34.3,29.53,ESE,122,6.0,10.0,81,0.01,,,0.02,WUHU216DAVISVP2,2013-04-22 06:04:00,
2013-04-22 02:05:00,39.6,34.3,29.53,ESE,110,6.0,10.0,81,0.01,,,0.02,WUHU216DAVISVP2,2013-04-22 06:05:00,
2013-04-22 02:09:00,39.4,34.1,29.53,ESE,115,6.0,10.0,81,0.01,,,0.02,WUHU216DAVISVP2,2013-04-22 06:09:00,
2013-04-22 02:10:00,39.4,34.1,29.53,ESE,112,4.0,10.0,81,0.01,,,0.02,WUHU216DAVISVP2,2013-04-22 06:10:00,
2013-04-22 02:15:00,39.3,34.0,29.52,ESE,106,5.0,10.0,81,0.01,,,0.02,WUHU216DAVISVP2,2013-04-22 06:15:00,
2013-04-22 02:16:00,39.3,34.3,29.52,ESE,120,5.0,10.0,82,0.01,,,0.02,WUHU216DAVISVP2,2013-04-22 06:16:00,
2013-04-22 02:20:00,39.2,34.2,29.52,SE,127,6.0,10.0,82,0.01,,,0.02,WUHU216DAVISVP2,2013-04-22 06:20:00,
2013-04-22 02:21:00,39.2,34.2,29.52,SE,125,4.0,10.0,82,0.01,,,0.02,WUHU216DAVISVP2,2013-04-22 06:21:00,
2013-04-22 02:25:00,39.2,34.2,29.52,SE,139,4.0,11.0,82,0.01,,,0.02,WUHU216DAVISVP2,2013-04-22 06:25:00,
2013-04-22 02:26:00,39.1,34.1,29.52,ESE,113,5.0,11.0,82,0.01,,,0.02,WUHU216DAVISVP2,2013-04-22 06:26:00,
2013-04-22 02:30:00,39.0,34.0,29.52,ESE,106,4.0,11.0,82,0.01,,,0.02,WUHU216DAVISVP2,2013-04-22 06:30:00,
2013-04-22 02:31:00,39.0,34.0,29.52,ESE,113,1.0,11.0,82,0.01,,,0.02,WUHU216DAVISVP2,2013-04-22 06:31:00,
2013-04-22 02:35:00,38.9,33.9,29.52,East,101,3.0,11.0,82,0.01,,,0.02,WUHU216DAVISVP2,2013-04-22 06:35:00,
2013-04-22 02:36:00,38.9,33.9,29.52,ESE,110,5.0,11.0,82,0.01,,,0.02,WUHU216DAVISVP2,2013-04-22 06:36:00,
2013-04-22 02:40:00,38.8,33.8,29.52,ESE,121,1.0,11.0,82,0.01,,,0.02,WUHU216DAVISVP2,2013-04-22 06:40:00,
2013-04-22 02:41:00,38.8,33.8,29.52,ESE,109,4.0,9.0,82,0.02,,,0.03,WUHU216DAVISVP2,2013-04-22 06:41:00,
2013-04-22 02:42:00,38.8,33.8,29.52,ESE,114,2.0,9.0,82,0.02,,,0.03,WUHU216DAVISVP2,2013-04-22 06:42:00,
2013-04-22 02:45:00,38.7,34.0,29.52,SE,129,6.0,8.0,83,0.02,,,0.03,WUHU216DAVISVP2,2013-04-22 06:45:00,
2013-04-22 02:46:00,38.7,34.0,29.52,ESE,108,5.0,8.0,83,0.01,,,0.03,WUHU216DAVISVP2,2013-04-22 06:46:00,
2013-04-22 02:47:00,38.7,33.7,29.52,ESE,110,6.0,8.0,82,0.01,,,0.03,WUHU216DAVISVP2,2013-04-22 06:47:00,
2013-04-22 02:50:00,38.6,33.6,29.52,ESE,113,6.0,8.0,82,0.01,,,0.03,WUHU216DAVISVP2,2013-04-22 06:50:00,
2013-04-22 02:51:00,38.6,33.9,29.52,ESE,114,3.0,8.0,83,0.01,,,0.03,WUHU216DAVISVP2,2013-04-22 06:51:00,
2013-04-22 02:52:00,38.6,33.9,29.51,ESE,111,4.0,8.0,83,0.01,,,0.03,WUHU216DAVISVP2,2013-04-22 06:52:00,
2013-04-22 02:55:00,38.5,33.8,29.51,SE,129,4.0,9.0,83,0.01,,,0.03,WUHU216DAVISVP2,2013-04-22 06:55:00,
2013-04-22 02:56:00,38.5,33.8,29.51,ESE,106,4.0,9.0,83,0.01,,,0.03,WUHU216DAVISVP2,2013-04-22 06:56:00,
2013-04-22 02:57:00,38.4,33.7,29.51,ESE,121,5.0,9.0,83,0.01,,,0.03,WUHU216DAVISVP2,2013-04-22 06:57:00,
2013-04-22 03:00:00,38.3,33.6,29.51,SE,128,6.0,9.0,83,0.01,,,0.03,WUHU216DAVISVP2,2013-04-22 07:00:00,
2013-04-22 03:01:00,38.3,33.6,29.51,ESE,111,4.0,9.0,83,0.01,,,0.03,WUHU216DAVISVP2,2013-04-22 07:01:00,
2013-04-22 03:02:00,38.3,33.6,29.51,ESE,120,4.0,9.0,83,0.01,,,0.03,WUHU216DAVISVP2,2013-04-22 07:02:00,
2013-04-22 03:03:00,38.3,33.6,29.51,ESE,118,2.0,9.0,83,0.01,,,0.03,WUHU216DAVISVP2,2013-04-22 07:03:00,
2013-04-22 03:06:00,38.3,33.6,29.51,SE,136,6.0,9.0,83,0.01,,,0.03,WUHU216DAVISVP2,2013-04-22 07:06:00,
2013-04-22 03:07:00,38.2,33.5,29.51,SE,125,4.0,9.0,83,0.01,,,0.03,WUHU216DAVISVP2,2013-04-22 07:07:00,
2013-04-22 03:08:00,38.2,33.5,29.51,ESE,115,5.0,9.0,83,0.01,,,0.03,WUHU216DAVISVP2,2013-04-22 07:08:00,
2013-04-22 03:11:00,38.1,33.4,29.51,SE,125,5.0,9.0,83,0.01,,,0.03,WUHU216DAVISVP2,2013-04-22 07:11:00,
2013-04-22 03:12:00,38.1,33.4,29.51,SE,126,4.0,9.0,83,0.01,,,0.03,WUHU216DAVISVP2,2013-04-22 07:12:00,
2013-04-22 03:13:00,38.1,33.4,29.51,ESE,119,2.0,8.0,83,0.01,,,0.03,WUHU216DAVISVP2,2013-04-22 07:13:00,
2013-04-22 03:16:00,38.0,33.3,29.51,ESE,122,4.0,8.0,83,0.01,,,0.03,WUHU216DAVISVP2,2013-04-22 07:16:00,
2013-04-22 03:17:00,38.0,33.3,29.51,ESE,112,3.0,8.0,83,0.01,,,0.03,WUHU216DAVISVP2,2013-04-22 07:17:00,
2013-04-22 03:18:00,38.0,33.3,29.51,ESE,114,6.0,8.0,83,0.01,,,0.03,WUHU216DAVISVP2,2013-04-22 07:18:00,
2013-04-22 03:21:00,38.0,33.6,29.51,ESE,115,4.0,8.0,84,0.01,,,0.03,WUHU216DAVISVP2,2013-04-22 07:21:00,
2013-04-22 03:22:00,37.9,33.5,29.51,ESE,108,4.0,8.0,84,0.01,,,0.03,WUHU216DAVISVP2,2013-04-22 07:22:00,
2013-04-22 03:23:00,37.9,33.5,29.51,SE,127,2.0,8.0,84,0.01,,,0.03,WUHU216DAVISVP2,2013-04-22 07:23:00,
2013-04-22 03:26:00,37.8,33.4,29.50,ESE,110,4.0,8.0,84,0.01,,,0.03,WUHU216DAVISVP2,2013-04-22 07:26:00,
2013-04-22 03:27:00,37.8,33.4,29.50,ESE,120,5.0,8.0,84,0.01,,,0.03,WUHU216DAVISVP2,2013-04-22 07:27:00,
2013-04-22 03:28:00,37.8,33.4,29.50,ESE,106,6.0,8.0,84,0.01,,,0.03,WUHU216DAVISVP2,2013-04-22 07:28:00,
2013-04-22 03:31:00,37.8,33.4,29.50,ESE,116,5.0,8.0,84,0.01,,,0.03,WUHU216DAVISVP2,2013-04-22 07:31:00,
2013-04-22 03:32:00,37.8,33.4,29.50,ESE,112,8.0,8.0,84,0.01,,,0.03,WUHU216DAVISVP2,2013-04-22 07:32:00,
2013-04-22 03:33:00,37.7,33.3,29.50,ESE,113,2.0,8.0,84,0.01,,,0.03,WUHU216DAVISVP2,2013-04-22 07:33:00,
2013-04-22 03:37:00,37.7,33.3,29.50,ESE,119,3.0,8.0,84,0.01,,,0.03,WUHU216DAVISVP2,2013-04-22 07:37:00,
2013-04-22 03:38:00,37.6,33.2,29.50,ESE,115,4.0,8.0,84,0.01,,,0.03,WUHU216DAVISVP2,2013-04-22 07:38:00,
2013-04-22 03:40:00,37.5,33.1,29.50,SE,124,5.0,8.0,84,0.00,,,0.03,WUHU216DAVISVP2,2013-04-22 07:40:00,
2013-04-22 03:42:00,37.5,33.1,29.50,ESE,116,5.0,9.0,84,0.00,,,0.03,WUHU216DAVISVP2,2013-04-22 07:42:00,
2013-04-22 03:43:00,37.5,33.1,29.50,ESE,116,3.0,9.0,84,0.00,,,0.03,WUHU216DAVISVP2,2013-04-22 07:43:00,
2013-04-22 03:44:00,37.4,33.0,29.50,ESE,111,5.0,9.0,84,0.00,,,0.03,WUHU216DAVISVP2,2013-04-22 07:44:00,
2013-04-22 03:45:00,37.4,33.0,29.50,ESE,122,5.0,9.0,84,0.00,,,0.03,WUHU216DAVISVP2,2013-04-22 07:45:00,
2013-04-22 03:47:00,37.4,33.0,29.50,SE,129,5.0,9.0,84,0.00,,,0.03,WUHU216DAVISVP2,2013-04-22 07:47:00,
2013-04-22 03:48:00,37.4,33.0,29.50,ESE,123,6.0,9.0,84,0.00,,,0.03,WUHU216DAVISVP2,2013-04-22 07:48:00,
2013-04-22 03:49:00,37.4,33.0,29.50,ESE,106,4.0,9.0,84,0.00,,,0.03,WUHU216DAVISVP2,2013-04-22 07:49:00,
2013-04-22 03:51:00,37.3,32.9,29.50,ESE,118,4.0,9.0,84,0.00,,,0.03,WUHU216DAVISVP2,2013-04-22 07:51:00,
2013-04-22 03:52:00,37.3,33.2,29.50,ESE,117,5.0,9.0,85,0.00,,,0.03,WUHU216DAVISVP2,2013-04-22 07:52:00,
2013-04-22 03:54:00,37.3,33.2,29.50,ESE,113,4.0,9.0,85,0.00,,,0.03,WUHU216DAVISVP2,2013-04-22 07:54:00,
2013-04-22 03:56:00,37.2,33.1,29.50,SE,133,5.0,9.0,85,0.00,,,0.03,WUHU216DAVISVP2,2013-04-22 07:56:00,
2013-04-22 03:57:00,37.1,33.0,29.50,ESE,112,5.0,9.0,85,0.00,,,0.03,WUHU216DAVISVP2,2013-04-22 07:57:00,
2013-04-22 03:59:00,37.1,33.0,29.50,ESE,111,5.0,9.0,85,0.00,,,0.03,WUHU216DAVISVP2,2013-04-22 07:59:00,
2013-04-22 04:00:00,37.1,33.0,29.50,ESE,114,5.0,9.0,85,0.00,,,0.03,WUHU216DAVISVP2,2013-04-22 08:00:00,
2013-04-22 04:01:00,37.1,33.0,29.50,SE,125,5.0,9.0,85,0.00,,,0.03,WUHU216DAVISVP2,2013-04-22 08:01:00,
2013-04-22 04:03:00,37.0,32.9,29.50,ESE,108,6.0,9.0,85,0.00,,,0.03,WUHU216DAVISVP2,2013-04-22 08:03:00,
2013-04-22 04:04:00,37.0,32.9,29.50,SE,131,4.0,7.0,85,0.00,,,0.03,WUHU216DAVISVP2,2013-04-22 08:04:00,
2013-04-22 04:05:00,36.9,32.8,29.50,ESE,122,6.0,7.0,85,0.00,,,0.03,WUHU216DAVISVP2,2013-04-22 08:05:00,
2013-04-22 04:06:00,36.9,32.8,29.50,ESE,120,4.0,7.0,85,0.00,,,0.03,WUHU216DAVISVP2,2013-04-22 08:06:00,
2013-04-22 04:08:00,36.9,33.1,29.50,SE,133,5.0,7.0,86,0.00,,,0.03,WUHU216DAVISVP2,2013-04-22 08:08:00,
2013-04-22 04:09:00,36.9,33.1,29.50,ESE,110,6.0,7.0,86,0.00,,,0.03,WUHU216DAVISVP2,2013-04-22 08:09:00,
2013-04-22 04:11:00,36.9,33.1,29.50,SE,124,5.0,7.0,86,0.00,,,0.03,WUHU216DAVISVP2,2013-04-22 08:11:00,
2013-04-22 04:13:00,36.8,33.0,29.49,ESE,118,2.0,9.0,86,0.00,,,0.03,WUHU216DAVISVP2,2013-04-22 08:13:00,
2013-04-22 04:14:00,36.8,33.0,29.49,ESE,121,5.0,9.0,86,0.00,,,0.03,WUHU216DAVISVP2,2013-04-22 08:14:00,
2013-04-22 04:16:00,36.8,33.0,29.49,SE,129,4.0,9.0,86,0.00,,,0.03,WUHU216DAVISVP2,2013-04-22 08:16:00,
2013-04-22 04:18:00,36.7,32.9,29.49,ESE,112,5.0,9.0,86,0.00,,,0.03,WUHU216DAVISVP2,2013-04-22 08:18:00,
2013-04-22 04:19:00,36.7,32.9,29.49,SE,125,2.0,9.0,86,0.00,,,0.03,WUHU216DAVISVP2,2013-04-22 08:19:00,
2013-04-22 04:21:00,36.6,32.8,29.50,ESE,122,2.0,9.0,86,0.00,,,0.03,WUHU216DAVISVP2,2013-04-22 08:21:00,
2013-04-22 04:22:00,36.6,32.8,29.50,ESE,106,8.0,9.0,86,0.00,,,0.03,WUHU216DAVISVP2,2013-04-22 08:22:00,
2013-04-22 04:23:00,36.6,32.8,29.49,SE,131,5.0,9.0,86,0.00,,,0.03,WUHU216DAVISVP2,2013-04-22 08:23:00,
2013-04-22 04:24:00,36.6,32.8,29.49,ESE,123,4.0,9.0,86,0.00,,,0.03,WUHU216DAVISVP2,2013-04-22 08:24:00,
2013-04-22 04:26:00,36.6,32.8,29.49,SE,137,2.0,9.0,86,0.00,,,0.03,WUHU216DAVISVP2,2013-04-22 08:26:00,
2013-04-22 04:27:00,36.6,32.8,29.49,ESE,122,4.0,9.0,86,0.00,,,0.03,WUHU216DAVISVP2,2013-04-22 08:27:00,
2013-04-22 04:28:00,36.5,32.7,29.49,ESE,106,5.0,9.0,86,0.01,,,0.04,WUHU216DAVISVP2,2013-04-22 08:28:00,
2013-04-22 04:29:00,36.5,32.7,29.49,ESE,117,4.0,9.0,86,0.01,,,0.04,WUHU216DAVISVP2,2013-04-22 08:29:00,
2013-04-22 04:30:00,36.5,32.7,29.49,ESE,117,4.0,9.0,86,0.01,,,0.04,WUHU216DAVISVP2,2013-04-22 08:30:00,
2013-04-22 04:31:00,36.4,32.6,29.49,ESE,113,5.0,9.0,86,0.01,,,0.04,WUHU216DAVISVP2,2013-04-22 08:31:00,
2013-04-22 04:32:00,36.4,32.6,29.49,SE,133,5.0,9.0,86,0.01,,,0.04,WUHU216DAVISVP2,2013-04-22 08:32:00,
2013-04-22 04:33:00,36.4,32.6,29.49,SE,142,4.0,9.0,86,0.01,,,0.04,WUHU216DAVISVP2,2013-04-22 08:33:00,
2013-04-22 04:35:00,36.4,32.6,29.49,ESE,108,5.0,9.0,86,0.01,,,0.04,WUHU216DAVISVP2,2013-04-22 08:35:00,
2013-04-22 04:36:00,36.3,32.5,29.49,SE,124,2.0,9.0,86,0.01,,,0.04,WUHU216DAVISVP2,2013-04-22 08:36:00,
2013-04-22 04:37:00,36.3,32.5,29.49,SE,135,4.0,9.0,86,0.01,,,0.04,WUHU216DAVISVP2,2013-04-22 08:37:00,
2013-04-22 04:38:00,36.3,32.5,29.49,ESE,121,4.0,9.0,86,0.01,,,0.04,WUHU216DAVISVP2,2013-04-22 08:38:00,
2013-04-22 04:40:00,36.2,32.4,29.49,ESE,103,5.0,9.0,86,0.01,,,0.04,WUHU216DAVISVP2,2013-04-22 08:40:00,
2013-04-22 04:42:00,36.1,32.6,29.49,ESE,118,2.0,9.0,87,0.01,,,0.04,WUHU216DAVISVP2,2013-04-22 08:42:00,
2013-04-22 04:43:00,36.1,32.6,29.49,ESE,106,2.0,9.0,87,0.01,,,0.04,WUHU216DAVISVP2,2013-04-22 08:43:00,
2013-04-22 04:45:00,36.1,32.6,29.49,ESE,114,4.0,8.0,87,0.01,,,0.04,WUHU216DAVISVP2,2013-04-22 08:45:00,
2013-04-22 04:47:00,36.0,32.5,29.49,ESE,121,5.0,8.0,87,0.01,,,0.04,WUHU216DAVISVP2,2013-04-22 08:47:00,
2013-04-22 04:48:00,36.0,32.5,29.49,ESE,116,6.0,8.0,87,0.01,,,0.04,WUHU216DAVISVP2,2013-04-22 08:48:00,
2013-04-22 04:50:00,36.0,32.5,29.49,ESE,110,5.0,8.0,87,0.01,,,0.04,WUHU216DAVISVP2,2013-04-22 08:50:00,
2013-04-22 04:52:00,35.9,32.4,29.49,ESE,115,1.0,8.0,87,0.01,,,0.04,WUHU216DAVISVP2,2013-04-22 08:52:00,
2013-04-22 04:53:00,35.9,32.4,29.49,SE,142,4.0,8.0,87,0.01,,,0.04,WUHU216DAVISVP2,2013-04-22 08:53:00,
2013-04-22 04:55:00,35.9,32.4,29.49,East,100,5.0,8.0,87,0.01,,,0.04,WUHU216DAVISVP2,2013-04-22 08:55:00,
2013-04-22 04:56:00,35.9,32.4,29.49,ESE,114,3.0,8.0,87,0.01,,,0.04,WUHU216DAVISVP2,2013-04-22 08:56:00,
2013-04-22 04:57:00,35.8,32.3,29.49,ESE,108,2.0,8.0,87,0.01,,,0.04,WUHU216DAVISVP2,2013-04-22 08:57:00,
2013-04-22 04:59:00,35.8,32.3,29.49,East,98,5.0,8.0,87,0.01,,,0.04,WUHU216DAVISVP2,2013-04-22 08:59:00,
2013-04-22 05:00:00,35.8,32.3,29.49,ESE,120,2.0,8.0,87,0.01,,,0.04,WUHU216DAVISVP2,2013-04-22 09:00:00,
2013-04-22 05:01:00,35.8,32.3,29.49,SE,127,5.0,8.0,87,0.01,,,0.04,WUHU216DAVISVP2,2013-04-22 09:01:00,
2013-04-22 05:02:00,35.8,32.3,29.49,ESE,122,5.0,8.0,87,0.01,,,0.04,WUHU216DAVISVP2,2013-04-22 09:02:00,
2013-04-22 05:03:00,35.8,32.3,29.49,ESE,113,3.0,8.0,87,0.01,,,0.04,WUHU216DAVISVP2,2013-04-22 09:03:00,
2013-04-22 05:04:00,35.7,32.2,29.49,SE,126,2.0,8.0,87,0.01,,,0.04,WUHU216DAVISVP2,2013-04-22 09:04:00,
2013-04-22 05:05:00,35.7,32.2,29.49,ESE,108,3.0,8.0,87,0.01,,,0.04,WUHU216DAVISVP2,2013-04-22 09:05:00,
2013-04-22 05:06:00,35.7,32.2,29.49,ESE,106,3.0,8.0,87,0.01,,,0.04,WUHU216DAVISVP2,2013-04-22 09:06:00,
2013-04-22 05:07:00,35.7,32.2,29.49,ESE,114,1.0,7.0,87,0.01,,,0.04,WUHU216DAVISVP2,2013-04-22 09:07:00,
2013-04-22 05:08:00,35.7,32.2,29.49,ESE,107,4.0,7.0,87,0.01,,,0.04,WUHU216DAVISVP2,2013-04-22 09:08:00,
2013-04-22 05:09:00,35.6,32.1,29.49,SE,128,4.0,7.0,87,0.01,,,0.04,WUHU216DAVISVP2,2013-04-22 09:09:00,
2013-04-22 05:10:00,35.6,32.1,29.49,ESE,112,3.0,7.0,87,0.01,,,0.04,WUHU216DAVISVP2,2013-04-22 09:10:00,
2013-04-22 05:11:00,35.6,32.1,29.49,ESE,115,3.0,7.0,87,0.01,,,0.04,WUHU216DAVISVP2,2013-04-22 09:11:00,
2013-04-22 05:12:00,35.5,32.0,29.49,ESE,114,2.0,7.0,87,0.01,,,0.04,WUHU216DAVISVP2,2013-04-22 09:12:00,
2013-04-22 05:13:00,35.5,32.0,29.49,ESE,118,2.0,7.0,87,0.01,,,0.04,WUHU216DAVISVP2,2013-04-22 09:13:00,
2013-04-22 05:14:00,35.5,32.3,29.48,East,101,5.0,7.0,88,0.01,,,0.04,WUHU216DAVISVP2,2013-04-22 09:14:00,
2013-04-22 05:16:00,35.5,32.3,29.49,ESE,111,4.0,7.0,88,0.01,,,0.04,WUHU216DAVISVP2,2013-04-22 09:16:00,
2013-04-22 05:18:00,35.4,32.2,29.49,ESE,116,4.0,7.0,88,0.01,,,0.04,WUHU216DAVISVP2,2013-04-22 09:18:00,
2013-04-22 05:19:00,35.4,32.2,29.48,ESE,120,4.0,7.0,88,0.01,,,0.04,WUHU216DAVISVP2,2013-04-22 09:19:00,
2013-04-22 05:21:00,35.4,32.2,29.49,ESE,102,5.0,7.0,88,0.01,,,0.04,WUHU216DAVISVP2,2013-04-22 09:21:00,
2013-04-22 05:23:00,35.4,32.2,29.48,ESE,112,4.0,6.0,88,0.01,,,0.04,WUHU216DAVISVP2,2013-04-22 09:23:00,
2013-04-22 05:24:00,35.3,32.1,29.48,ESE,112,4.0,6.0,88,0.01,,,0.04,WUHU216DAVISVP2,2013-04-22 09:24:00,
2013-04-22 05:26:00,35.3,32.1,29.48,ESE,120,2.0,6.0,88,0.01,,,0.04,WUHU216DAVISVP2,2013-04-22 09:26:00,
2013-04-22 05:28:00,35.3,32.1,29.48,SE,127,3.0,7.0,88,0.00,,,0.04,WUHU216DAVISVP2,2013-04-22 09:28:00,
2013-04-22 05:29:00,35.3,32.1,29.48,ESE,108,5.0,7.0,88,0.00,,,0.04,WUHU216DAVISVP2,2013-04-22 09:29:00,
2013-04-22 05:31:00,35.3,32.1,29.48,ESE,119,4.0,7.0,88,0.00,,,0.04,WUHU216DAVISVP2,2013-04-22 09:31:00,
2013-04-22 05:32:00,35.3,32.1,29.48,ESE,121,4.0,7.0,88,0.00,,,0.04,WUHU216DAVISVP2,2013-04-22 09:32:00,
2013-04-22 05:33:00,35.3,32.1,29.48,ESE,112,5.0,7.0,88,0.00,,,0.04,WUHU216DAVISVP2,2013-04-22 09:33:00,
2013-04-22 05:34:00,35.3,32.1,29.48,SE,133,3.0,7.0,88,0.00,,,0.04,WUHU216DAVISVP2,2013-04-22 09:34:00,
2013-04-22 05:36:00,35.2,32.0,29.48,ESE,120,2.0,7.0,88,0.00,,,0.04,WUHU216DAVISVP2,2013-04-22 09:36:00,
2013-04-22 05:37:00,35.2,32.0,29.48,SE,127,2.0,7.0,88,0.00,,,0.04,WUHU216DAVISVP2,2013-04-22 09:37:00,
2013-04-22 05:38:00,35.2,32.0,29.48,ESE,118,4.0,7.0,88,0.00,,,0.04,WUHU216DAVISVP2,2013-04-22 09:38:00,
2013-04-22 05:39:00,35.2,32.0,29.48,ESE,122,3.0,7.0,88,0.00,,,0.04,WUHU216DAVISVP2,2013-04-22 09:39:00,
2013-04-22 05:40:00,35.2,32.0,29.48,SE,125,2.0,7.0,88,0.00,,,0.04,WUHU216DAVISVP2,2013-04-22 09:40:00,
2013-04-22 05:42:00,35.1,31.9,29.48,ESE,106,5.0,7.0,88,0.00,,,0.04,WUHU216DAVISVP2,2013-04-22 09:42:00,
2013-04-22 05:43:00,35.1,31.9,29.48,ESE,116,2.0,7.0,88,0.00,,,0.04,WUHU216DAVISVP2,2013-04-22 09:43:00,
2013-04-22 05:44:00,35.1,31.9,29.48,ESE,116,2.0,7.0,88,0.00,,,0.04,WUHU216DAVISVP2,2013-04-22 09:44:00,
2013-04-22 05:46:00,35.0,31.8,29.48,ESE,121,2.0,7.0,88,0.00,,,0.04,WUHU216DAVISVP2,2013-04-22 09:46:00,
2013-04-22 05:47:00,35.0,31.8,29.48,ESE,117,3.0,6.0,88,0.00,,,0.04,WUHU216DAVISVP2,2013-04-22 09:47:00,
2013-04-22 05:48:00,35.0,31.8,29.48,ESE,117,1.0,6.0,88,0.00,,,0.04,WUHU216DAVISVP2,2013-04-22 09:48:00,
2013-04-22 05:49:00,35.0,31.8,29.48,SE,126,2.0,6.0,88,0.00,,,0.04,WUHU216DAVISVP2,2013-04-22 09:49:00,
2013-04-22 05:50:00,35.0,31.8,29.48,ESE,122,2.0,6.0,88,0.00,,,0.04,WUHU216DAVISVP2,2013-04-22 09:50:00,
2013-04-22 05:51:00,35.0,31.8,29.48,ESE,118,3.0,6.0,88,0.00,,,0.04,WUHU216DAVISVP2,2013-04-22 09:51:00,
2013-04-22 05:52:00,34.9,31.7,29.48,ESE,122,2.0,5.0,88,0.00,,,0.04,WUHU216DAVISVP2,2013-04-22 09:52:00,
2013-04-22 05:53:00,34.9,31.7,29.48,ESE,122,2.0,5.0,88,0.00,,,0.04,WUHU216DAVISVP2,2013-04-22 09:53:00,
2013-04-22 05:55:00,34.8,31.6,29.48,ESE,108,2.0,6.0,88,0.01,,,0.05,WUHU216DAVISVP2,2013-04-22 09:55:00,
2013-04-22 05:56:00,34.8,31.8,29.48,ESE,108,4.0,6.0,89,0.01,,,0.05,WUHU216DAVISVP2,2013-04-22 09:56:00,
2013-04-22 05:57:00,34.8,31.8,29.48,ESE,106,5.0,6.0,89,0.01,,,0.05,WUHU216DAVISVP2,2013-04-22 09:57:00,
2013-04-22 05:58:00,34.8,31.8,29.48,ESE,108,4.0,6.0,89,0.01,,,0.05,WUHU216DAVISVP2,2013-04-22 09:58:00,
2013-04-22 06:00:00,34.8,31.8,29.48,ESE,118,5.0,6.0,89,0.01,,,0.05,WUHU216DAVISVP2,2013-04-22 10:00:00,
2013-04-22 06:01:00,34.8,31.8,29.48,ESE,116,4.0,6.0,89,0.01,,,0.05,WUHU216DAVISVP2,2013-04-22 10:01:00,
2013-04-22 06:02:00,34.7,31.7,29.48,ESE,108,4.0,6.0,89,0.01,,,0.05,WUHU216DAVISVP2,2013-04-22 10:02:00,
2013-04-22 06:03:00,34.7,31.7,29.48,ESE,114,4.0,6.0,89,0.01,,,0.05,WUHU216DAVISVP2,2013-04-22 10:03:00,
2013-04-22 06:05:00,34.7,31.7,29.48,ESE,116,5.0,6.0,89,0.01,,,0.05,WUHU216DAVISVP2,2013-04-22 10:05:00,
2013-04-22 06:06:00,34.6,31.6,29.48,ESE,106,6.0,6.0,89,0.01,,,0.05,WUHU216DAVISVP2,2013-04-22 10:06:00,
2013-04-22 06:08:00,34.6,31.6,29.48,ESE,106,5.0,6.0,89,0.01,,,0.05,WUHU216DAVISVP2,2013-04-22 10:08:00,
2013-04-22 06:10:00,34.6,31.6,29.48,ESE,108,3.0,6.0,89,0.01,,,0.05,WUHU216DAVISVP2,2013-04-22 10:10:00,
2013-04-22 06:11:00,34.6,31.6,29.48,ESE,119,4.0,6.0,89,0.01,,,0.05,WUHU216DAVISVP2,2013-04-22 10:11:00,
2013-04-22 06:13:00,34.5,31.5,29.48,ESE,118,3.0,6.0,89,0.01,,,0.05,WUHU216DAVISVP2,2013-04-22 10:13:00,
2013-04-22 06:15:00,34.5,31.5,29.48,ESE,118,4.0,6.0,89,0.01,,,0.05,WUHU216DAVISVP2,2013-04-22 10:15:00,
2013-04-22 06:16:00,34.5,31.5,29.48,ESE,118,4.0,6.0,89,0.01,,,0.05,WUHU216DAVISVP2,2013-04-22 10:16:00,
2013-04-22 06:18:00,34.4,31.5,29.48,ESE,102,4.0,6.0,89,0.01,,,0.05,WUHU216DAVISVP2,2013-04-22 10:18:00,
2013-04-22 06:19:00,34.4,31.5,29.48,ESE,117,3.0,6.0,89,0.01,,,0.05,WUHU216DAVISVP2,2013-04-22 10:19:00,
2013-04-22 06:20:00,34.4,31.5,29.48,ESE,108,2.0,6.0,89,0.01,,,0.05,WUHU216DAVISVP2,2013-04-22 10:20:00,
2013-04-22 06:21:00,34.4,31.5,29.49,ESE,122,2.0,6.0,89,0.01,,,0.05,WUHU216DAVISVP2,2013-04-22 10:21:00,
2013-04-22 06:22:00,34.4,31.5,29.49,ESE,112,5.0,6.0,89,0.01,,,0.05,WUHU216DAVISVP2,2013-04-22 10:22:00,
2013-04-22 06:24:00,34.4,31.5,29.49,ESE,116,5.0,7.0,89,0.01,,,0.05,WUHU216DAVISVP2,2013-04-22 10:24:00,
2013-04-22 06:25:00,34.4,31.7,29.49,ESE,109,5.0,7.0,90,0.01,,,0.05,WUHU216DAVISVP2,2013-04-22 10:25:00,
2013-04-22 06:26:00,34.4,31.7,29.48,ESE,119,2.0,7.0,90,0.01,,,0.05,WUHU216DAVISVP2,2013-04-22 10:26:00,
2013-04-22 06:27:00,34.4,31.7,29.48,SE,125,4.0,7.0,90,0.01,,,0.05,WUHU216DAVISVP2,2013-04-22 10:27:00,
2013-04-22 06:29:00,34.4,31.5,29.49,ESE,122,2.0,7.0,89,0.01,,,0.05,WUHU216DAVISVP2,2013-04-22 10:29:00,
2013-04-22 06:30:00,34.3,31.4,29.49,ESE,110,5.0,7.0,89,0.01,,,0.05,WUHU216DAVISVP2,2013-04-22 10:30:00,
2013-04-22 06:32:00,34.3,31.6,29.49,ESE,112,4.0,7.0,90,0.01,,,0.05,WUHU216DAVISVP2,2013-04-22 10:32:00,
2013-04-22 06:34:00,34.3,31.6,29.49,ESE,107,4.0,7.0,90,0.01,,,0.05,WUHU216DAVISVP2,2013-04-22 10:34:00,
2013-04-22 06:35:00,34.3,31.6,29.49,ESE,107,5.0,7.0,90,0.01,,,0.05,WUHU216DAVISVP2,2013-04-22 10:35:00,
2013-04-22 06:36:00,34.3,31.6,29.49,ESE,114,4.0,7.0,90,0.01,,,0.05,WUHU216DAVISVP2,2013-04-22 10:36:00,
2013-04-22 06:37:00,34.3,31.4,29.49,ESE,111,4.0,7.0,89,0.01,,,0.05,WUHU216DAVISVP2,2013-04-22 10:37:00,
2013-04-22 06:39:00,34.3,31.4,29.49,ESE,116,4.0,7.0,89,0.01,,,0.05,WUHU216DAVISVP2,2013-04-22 10:39:00,
2013-04-22 06:40:00,34.2,31.3,29.49,SE,127,4.0,7.0,89,0.01,,,0.05,WUHU216DAVISVP2,2013-04-22 10:40:00,
2013-04-22 06:41:00,34.2,31.3,29.49,ESE,118,2.0,7.0,89,0.01,,,0.05,WUHU216DAVISVP2,2013-04-22 10:41:00,
2013-04-22 06:42:00,34.2,31.3,29.49,ESE,118,4.0,7.0,89,0.01,,,0.05,WUHU216DAVISVP2,2013-04-22 10:42:00,
2013-04-22 06:45:00,34.2,31.5,29.49,ESE,113,4.0,7.0,90,0.01,,,0.05,WUHU216DAVISVP2,2013-04-22 10:45:00,
2013-04-22 06:46:00,34.2,31.5,29.49,ESE,111,4.0,7.0,90,0.01,,,0.05,WUHU216DAVISVP2,2013-04-22 10:46:00,
2013-04-22 06:47:00,34.1,31.4,29.49,ESE,111,6.0,7.0,90,0.01,,,0.05,WUHU216DAVISVP2,2013-04-22 10:47:00,
2013-04-22 06:50:00,34.1,31.4,29.49,ESE,120,4.0,6.0,90,0.01,,,0.05,WUHU216DAVISVP2,2013-04-22 10:50:00,
2013-04-22 06:51:00,34.1,31.4,29.49,SE,124,4.0,6.0,90,0.01,,,0.05,WUHU216DAVISVP2,2013-04-22 10:51:00,
2013-04-22 06:52:00,34.1,31.4,29.49,ESE,120,2.0,6.0,90,0.01,,,0.05,WUHU216DAVISVP2,2013-04-22 10:52:00,
2013-04-22 06:55:00,34.0,31.3,29.49,ESE,117,4.0,6.0,90,0.00,,,0.05,WUHU216DAVISVP2,2013-04-22 10:55:00,
2013-04-22 06:56:00,34.0,31.3,29.49,ESE,113,4.0,6.0,90,0.00,,,0.05,WUHU216DAVISVP2,2013-04-22 10:56:00,
2013-04-22 06:57:00,34.0,31.3,29.49,ESE,117,4.0,6.0,90,0.00,,,0.05,WUHU216DAVISVP2,2013-04-22 10:57:00,
2013-04-22 07:00:00,34.0,31.3,29.49,ESE,108,3.0,6.0,90,0.00,,,0.05,WUHU216DAVISVP2,2013-04-22 11:00:00,
2013-04-22 07:01:00,33.9,31.2,29.49,ESE,122,4.0,6.0,90,0.00,,,0.05,WUHU216DAVISVP2,2013-04-22 11:01:00,
2013-04-22 07:03:00,34.0,31.3,29.49,ESE,110,4.0,7.0,90,0.00,,,0.05,WUHU216DAVISVP2,2013-04-22 11:03:00,
2013-04-22 07:05:00,34.0,31.3,29.49,ESE,114,4.0,7.0,90,0.00,,,0.05,WUHU216DAVISVP2,2013-04-22 11:05:00,
2013-04-22 07:07:00,34.0,31.3,29.49,ESE,108,6.0,7.0,90,0.00,,,0.05,WUHU216DAVISVP2,2013-04-22 11:07:00,
2013-04-22 07:08:00,34.0,31.3,29.49,SE,129,2.0,7.0,90,0.00,,,0.05,WUHU216DAVISVP2,2013-04-22 11:08:00,
2013-04-22 07:10:00,34.0,31.3,29.49,ESE,117,5.0,7.0,90,0.00,,,0.05,WUHU216DAVISVP2,2013-04-22 11:10:00,
2013-04-22 07:12:00,34.0,31.3,29.49,SE,125,2.0,7.0,90,0.00,,,0.05,WUHU216DAVISVP2,2013-04-22 11:12:00,
2013-04-22 07:13:00,34.1,31.4,29.49,ESE,119,3.0,7.0,90,0.00,,,0.05,WUHU216DAVISVP2,2013-04-22 11:13:00,
2013-04-22 07:15:00,34.1,31.5,29.49,ESE,120,4.0,7.0,90,0.00,,,0.05,WUHU216DAVISVP2,2013-04-22 11:15:00,
2013-04-22 07:17:00,34.1,31.5,29.49,ESE,120,2.0,7.0,90,0.00,,,0.05,WUHU216DAVISVP2,2013-04-22 11:17:00,
2013-04-22 07:18:00,34.1,31.5,29.49,ESE,112,3.0,7.0,90,0.00,,,0.05,WUHU216DAVISVP2,2013-04-22 11:18:00,
2013-04-22 07:21:00,34.1,31.5,29.48,ESE,116,4.0,7.0,90,0.00,,,0.05,WUHU216DAVISVP2,2013-04-22 11:21:00,
2013-04-22 07:22:00,34.2,31.6,29.49,SSE,147,6.0,6.0,90,0.00,,,0.05,WUHU216DAVISVP2,2013-04-22 11:22:00,
2013-04-22 07:23:00,34.2,31.6,29.48,SE,131,4.0,6.0,90,0.00,,,0.05,WUHU216DAVISVP2,2013-04-22 11:23:00,
2013-04-22 07:26:00,34.2,31.6,29.49,ESE,109,2.0,6.0,90,0.00,,,0.05,WUHU216DAVISVP2,2013-04-22 11:26:00,
2013-04-22 07:27:00,34.2,31.6,29.49,SE,125,5.0,6.0,90,0.00,,,0.05,WUHU216DAVISVP2,2013-04-22 11:27:00,
2013-04-22 07:28:00,34.2,31.6,29.49,SE,125,4.0,6.0,90,0.00,,,0.05,WUHU216DAVISVP2,2013-04-22 11:28:00,
2013-04-22 07:29:00,34.2,31.6,29.49,ESE,116,2.0,6.0,90,0.00,,,0.05,WUHU216DAVISVP2,2013-04-22 11:29:00,
2013-04-22 07:31:00,34.3,31.6,29.49,ESE,114,5.0,6.0,90,0.00,,,0.05,WUHU216DAVISVP2,2013-04-22 11:31:00,
2013-04-22 07:33:00,34.4,31.7,29.48,ESE,119,2.0,6.0,90,0.00,,,0.05,WUHU216DAVISVP2,2013-04-22 11:33:00,
2013-04-22 07:34:00,34.4,31.7,29.48,ESE,114,4.0,6.0,90,0.00,,,0.05,WUHU216DAVISVP2,2013-04-22 11:34:00,
2013-04-22 07:36:00,34.4,31.7,29.48,ESE,107,5.0,7.0,90,0.00,,,0.05,WUHU216DAVISVP2,2013-04-22 11:36:00,
2013-04-22 07:38:00,34.5,31.8,29.49,ESE,110,5.0,7.0,90,0.00,,,0.05,WUHU216DAVISVP2,2013-04-22 11:38:00,
2013-04-22 07:39:00,34.5,31.8,29.49,ESE,120,3.0,7.0,90,0.00,,,0.05,WUHU216DAVISVP2,2013-04-22 11:39:00,
2013-04-22 07:41:00,34.6,31.9,29.49,ESE,116,4.0,7.0,90,0.00,,,0.05,WUHU216DAVISVP2,2013-04-22 11:41:00,
2013-04-22 07:43:00,34.6,31.9,29.48,SE,127,7.0,7.0,90,0.00,,,0.05,WUHU216DAVISVP2,2013-04-22 11:43:00,
2013-04-22 07:44:00,34.6,31.9,29.49,SE,137,3.0,7.0,90,0.00,,,0.05,WUHU216DAVISVP2,2013-04-22 11:44:00,
2013-04-22 07:46:00,34.8,32.1,29.49,East,101,2.0,7.0,90,0.00,,,0.05,WUHU216DAVISVP2,2013-04-22 11:46:00,
2013-04-22 07:48:00,34.9,32.2,29.49,SE,137,2.0,7.0,90,0.00,,,0.05,WUHU216DAVISVP2,2013-04-22 11:48:00,
2013-04-22 07:49:00,35.0,32.3,29.49,SE,127,2.0,7.0,90,0.00,,,0.05,WUHU216DAVISVP2,2013-04-22 11:49:00,
2013-04-22 07:52:00,35.1,32.4,29.49,ESE,114,4.0,7.0,90,0.00,,,0.05,WUHU216DAVISVP2,2013-04-22 11:52:00,
2013-04-22 07:53:00,35.2,32.5,29.49,ESE,114,4.0,7.0,90,0.00,,,0.05,WUHU216DAVISVP2,2013-04-22 11:53:00,
2013-04-22 07:54:00,35.3,32.6,29.49,ESE,118,4.0,7.0,90,0.00,,,0.05,WUHU216DAVISVP2,2013-04-22 11:54:00,
2013-04-22 07:58:00,35.5,32.5,29.49,SE,125,4.0,7.0,89,0.00,,,0.05,WUHU216DAVISVP2,2013-04-22 11:58:00,
2013-04-22 07:59:00,35.6,32.6,29.49,ESE,116,5.0,7.0,89,0.00,,,0.05,WUHU216DAVISVP2,2013-04-22 11:59:00,
2013-04-22 08:03:00,35.9,32.9,29.49,ESE,116,2.0,6.0,89,0.00,,,0.05,WUHU216DAVISVP2,2013-04-22 12:03:00,
2013-04-22 08:04:00,36.0,33.0,29.49,ESE,120,4.0,6.0,89,0.00,,,0.05,WUHU216DAVISVP2,2013-04-22 12:04:00,
2013-04-22 08:08:00,36.2,33.2,29.49,ESE,117,4.0,6.0,89,0.00,,,0.05,WUHU216DAVISVP2,2013-04-22 12:08:00,
2013-04-22 08:09:00,36.3,33.0,29.49,ESE,117,4.0,6.0,88,0.00,,,0.05,WUHU216DAVISVP2,2013-04-22 12:09:00,
2013-04-22 08:10:00,36.4,33.1,29.49,ESE,116,5.0,6.0,88,0.00,,,0.05,WUHU216DAVISVP2,2013-04-22 12:10:00,
2013-04-22 08:14:00,36.7,33.4,29.49,SE,129,4.0,6.0,88,0.00,,,0.05,WUHU216DAVISVP2,2013-04-22 12:14:00,
2013-04-22 08:15:00,36.7,33.4,29.49,SE,129,6.0,6.0,88,0.00,,,0.05,WUHU216DAVISVP2,2013-04-22 12:15:00,
2013-04-22 08:19:00,37.0,33.5,29.49,ESE,110,1.0,6.0,87,0.00,,,0.05,WUHU216DAVISVP2,2013-04-22 12:19:00,
2013-04-22 08:20:00,37.1,33.6,29.49,ESE,110,1.0,6.0,87,0.00,,,0.05,WUHU216DAVISVP2,2013-04-22 12:20:00,
2013-04-22 08:24:00,37.5,34.0,29.49,ESE,114,4.0,6.0,87,0.00,,,0.05,WUHU216DAVISVP2,2013-04-22 12:24:00,
2013-04-22 08:25:00,37.5,34.0,29.49,ESE,113,2.0,6.0,87,0.00,,,0.05,WUHU216DAVISVP2,2013-04-22 12:25:00,
2013-04-22 08:29:00,37.9,33.8,29.49,East,101,4.0,6.0,85,0.00,,,0.05,WUHU216DAVISVP2,2013-04-22 12:29:00,
2013-04-22 08:30:00,37.9,33.8,29.49,East,101,4.0,6.0,85,0.00,,,0.05,WUHU216DAVISVP2,2013-04-22 12:30:00,
2013-04-22 08:31:00,38.0,33.9,29.49,ESE,118,6.0,6.0,85,0.00,,,0.05,WUHU216DAVISVP2,2013-04-22 12:31:00,
2013-04-22 08:35:00,38.2,33.8,29.49,ESE,116,4.0,6.0,84,0.00,,,0.05,WUHU216DAVISVP2,2013-04-22 12:35:00,
2013-04-22 08:36:00,38.3,34.2,29.49,ESE,122,5.0,6.0,85,0.00,,,0.05,WUHU216DAVISVP2,2013-04-22 12:36:00,
2013-04-22 08:40:00,38.6,34.2,29.49,SE,133,4.0,6.0,84,0.00,,,0.05,WUHU216DAVISVP2,2013-04-22 12:40:00,
2013-04-22 08:41:00,38.6,34.2,29.49,SE,127,1.0,6.0,84,0.00,,,0.05,WUHU216DAVISVP2,2013-04-22 12:41:00,
2013-04-22 08:45:00,38.9,34.5,29.48,ESE,102,1.0,6.0,84,0.00,,,0.05,WUHU216DAVISVP2,2013-04-22 12:45:00,
2013-04-22 08:46:00,39.1,34.4,29.48,ESE,110,3.0,6.0,83,0.00,,,0.05,WUHU216DAVISVP2,2013-04-22 12:46:00,
2013-04-22 08:50:00,39.5,35.1,29.48,ESE,116,4.0,6.0,84,0.00,,,0.05,WUHU216DAVISVP2,2013-04-22 12:50:00,
2013-04-22 08:51:00,39.6,34.9,29.48,ESE,112,2.0,6.0,83,0.00,,,0.05,WUHU216DAVISVP2,2013-04-22 12:51:00,
2013-04-22 08:55:00,40.0,35.3,29.48,ESE,112,2.0,6.0,83,0.00,,,0.05,WUHU216DAVISVP2,2013-04-22 12:55:00,
2013-04-22 08:56:00,40.0,35.0,29.48,ESE,112,1.0,6.0,82,0.00,,,0.05,WUHU216DAVISVP2,2013-04-22 12:56:00,
2013-04-22 08:57:00,40.1,35.0,29.48,ESE,111,3.0,6.0,82,0.00,,,0.05,WUHU216DAVISVP2,2013-04-22 12:57:00,
2013-04-22 09:00:00,40.4,35.3,29.48,ESE,112,2.0,5.0,82,0.00,,,0.05,WUHU216DAVISVP2,2013-04-22 13:00:00,
2013-04-22 09:01:00,40.4,35.0,29.48,ESE,112,4.0,5.0,81,0.00,,,0.05,WUHU216DAVISVP2,2013-04-22 13:01:00,
2013-04-22 09:02:00,40.5,35.1,29.48,ESE,112,1.0,5.0,81,0.00,,,0.05,WUHU216DAVISVP2,2013-04-22 13:02:00,
2013-04-22 09:05:00,40.7,35.3,29.48,SE,125,1.0,5.0,81,0.01,,,0.06,WUHU216DAVISVP2,2013-04-22 13:05:00,
2013-04-22 09:06:00,40.7,35.3,29.48,SE,125,1.0,5.0,81,0.01,,,0.06,WUHU216DAVISVP2,2013-04-22 13:06:00,
2013-04-22 09:07:00,40.7,35.3,29.48,SE,139,4.0,5.0,81,0.01,,,0.06,WUHU216DAVISVP2,2013-04-22 13:07:00,
2013-04-22 09:11:00,40.9,35.2,29.48,East,87,2.0,5.0,80,0.01,,,0.06,WUHU216DAVISVP2,2013-04-22 13:11:00,
2013-04-22 09:12:00,41.0,35.3,29.48,SE,127,2.0,6.0,80,0.01,,,0.06,WUHU216DAVISVP2,2013-04-22 13:12:00,
2013-04-22 09:16:00,41.3,35.6,29.48,ESE,114,2.0,6.0,80,0.01,,,0.06,WUHU216DAVISVP2,2013-04-22 13:16:00,
2013-04-22 09:17:00,41.4,35.7,29.48,ESE,110,1.0,6.0,80,0.01,,,0.06,WUHU216DAVISVP2,2013-04-22 13:17:00,
2013-04-22 09:18:00,41.5,36.1,29.48,ESE,111,2.0,6.0,81,0.01,,,0.06,WUHU216DAVISVP2,2013-04-22 13:18:00,
2013-04-22 09:21:00,41.8,36.1,29.48,ESE,117,4.0,6.0,80,0.01,,,0.06,WUHU216DAVISVP2,2013-04-22 13:21:00,
2013-04-22 09:23:00,41.9,35.9,29.48,ESE,116,2.0,6.0,79,0.01,,,0.06,WUHU216DAVISVP2,2013-04-22 13:23:00,
2013-04-22 09:26:00,42.3,36.3,29.48,ESE,107,0.0,6.0,79,0.01,,,0.06,WUHU216DAVISVP2,2013-04-22 13:26:00,
2013-04-22 09:28:00,42.5,36.4,29.48,East,89,0.0,6.0,79,0.01,,,0.06,WUHU216DAVISVP2,2013-04-22 13:28:00,
2013-04-22 09:31:00,43.2,36.8,29.48,ESE,120,5.0,6.0,78,0.01,,,0.06,WUHU216DAVISVP2,2013-04-22 13:31:00,
2013-04-22 09:32:00,43.3,36.9,29.48,ESE,112,4.0,6.0,78,0.01,,,0.06,WUHU216DAVISVP2,2013-04-22 13:32:00,
2013-04-22 09:33:00,43.4,37.0,29.48,SSE,155,3.0,6.0,78,0.01,,,0.06,WUHU216DAVISVP2,2013-04-22 13:33:00,
2013-04-22 09:37:00,44.0,36.9,29.48,SE,128,2.0,6.0,76,0.01,,,0.06,WUHU216DAVISVP2,2013-04-22 13:37:00,
2013-04-22 09:38:00,44.2,37.1,29.48,ESE,112,4.0,6.0,76,0.01,,,0.06,WUHU216DAVISVP2,2013-04-22 13:38:00,
2013-04-22 09:42:00,44.9,37.5,29.48,ESE,122,4.0,6.0,75,0.01,,,0.06,WUHU216DAVISVP2,2013-04-22 13:42:00,
2013-04-22 09:43:00,45.1,37.4,29.48,ESE,122,6.0,6.0,74,0.01,,,0.06,WUHU216DAVISVP2,2013-04-22 13:43:00,
2013-04-22 09:47:00,45.3,36.9,29.48,ESE,112,5.0,8.0,72,0.01,,,0.06,WUHU216DAVISVP2,2013-04-22 13:47:00,
2013-04-22 09:48:00,45.4,37.0,29.47,SE,127,1.0,8.0,72,0.01,,,0.06,WUHU216DAVISVP2,2013-04-22 13:48:00,
2013-04-22 09:52:00,45.8,37.4,29.47,SE,131,0.0,8.0,72,0.01,,,0.06,WUHU216DAVISVP2,2013-04-22 13:52:00,
2013-04-22 09:53:00,45.9,37.1,29.48,SE,131,0.0,8.0,71,0.01,,,0.06,WUHU216DAVISVP2,2013-04-22 13:53:00,
2013-04-22 09:57:00,46.5,37.3,29.47,ESE,112,0.0,8.0,70,0.01,,,0.06,WUHU216DAVISVP2,2013-04-22 13:57:00,
2013-04-22 09:58:00,46.7,37.5,29.48,ESE,112,2.0,8.0,70,0.01,,,0.06,WUHU216DAVISVP2,2013-04-22 13:58:00,
2013-04-22 10:02:00,47.5,37.9,29.48,SE,128,2.0,8.0,69,0.01,,,0.06,WUHU216DAVISVP2,2013-04-22 14:02:00,
2013-04-22 10:03:00,47.7,37.8,29.47,South,174,0.0,7.0,68,0.00,,,0.06,WUHU216DAVISVP2,2013-04-22 14:03:00,
2013-04-22 10:04:00,47.8,37.9,29.48,SE,134,4.0,7.0,68,0.00,,,0.06,WUHU216DAVISVP2,2013-04-22 14:04:00,
2013-04-22 10:07:00,48.1,36.1,29.47,SSE,156,2.0,9.0,63,0.00,,,0.06,WUHU216DAVISVP2,2013-04-22 14:07:00,
2013-04-22 10:08:00,48.2,36.6,29.47,SSE,156,0.0,9.0,64,0.00,,,0.06,WUHU216DAVISVP2,2013-04-22 14:08:00,
2013-04-22 10:09:00,48.2,36.6,29.47,SSE,163,6.0,9.0,64,0.00,,,0.06,WUHU216DAVISVP2,2013-04-22 14:09:00,
2013-04-22 10:12:00,48.3,35.9,29.47,ESE,106,0.0,9.0,62,0.00,,,0.06,WUHU216DAVISVP2,2013-04-22 14:12:00,
2013-04-22 10:13:00,48.4,36.4,29.47,SW,227,4.0,9.0,63,0.00,,,0.06,WUHU216DAVISVP2,2013-04-22 14:13:00,
2013-04-22 10:14:00,48.5,36.5,29.47,SW,214,2.0,9.0,63,0.00,,,0.06,WUHU216DAVISVP2,2013-04-22 14:14:00,
2013-04-22 10:17:00,48.8,36.5,29.47,South,178,3.0,9.0,62,0.00,,,0.06,WUHU216DAVISVP2,2013-04-22 14:17:00,
2013-04-22 10:18:00,48.8,36.5,29.47,SSE,167,4.0,9.0,62,0.00,,,0.06,WUHU216DAVISVP2,2013-04-22 14:18:00,
2013-04-22 10:19:00,48.9,36.5,29.47,SSE,162,2.0,9.0,62,0.00,,,0.06,WUHU216DAVISVP2,2013-04-22 14:19:00,
2013-04-22 10:22:00,49.4,37.0,29.47,SW,221,1.0,9.0,62,0.00,,,0.06,WUHU216DAVISVP2,2013-04-22 14:22:00,
2013-04-22 10:23:00,49.5,36.7,29.47,NE,39,5.0,9.0,61,0.00,,,0.06,WUHU216DAVISVP2,2013-04-22 14:23:00,
2013-04-22 10:24:00,49.6,36.8,29.47,East,95,2.0,9.0,61,0.00,,,0.06,WUHU216DAVISVP2,2013-04-22 14:24:00,
2013-04-22 10:27:00,50.1,36.4,29.47,SE,127,4.0,9.0,59,0.00,,,0.06,WUHU216DAVISVP2,2013-04-22 14:27:00,
2013-04-22 10:28:00,50.2,36.0,29.47,SE,143,3.0,8.0,58,0.00,,,0.06,WUHU216DAVISVP2,2013-04-22 14:28:00,
2013-04-22 10:29:00,50.3,36.1,29.47,SSE,166,1.0,8.0,58,0.00,,,0.06,WUHU216DAVISVP2,2013-04-22 14:29:00,
2013-04-22 10:30:00,50.4,35.7,29.47,SSE,164,1.0,8.0,57,0.00,,,0.06,WUHU216DAVISVP2,2013-04-22 14:30:00,
2013-04-22 10:32:00,50.6,35.9,29.47,ESE,118,1.0,8.0,57,0.00,,,0.06,WUHU216DAVISVP2,2013-04-22 14:32:00,
2013-04-22 10:33:00,50.7,36.5,29.47,SSE,147,3.0,8.0,58,0.00,,,0.06,WUHU216DAVISVP2,2013-04-22 14:33:00,
2013-04-22 10:34:00,50.8,36.5,29.47,ESE,122,2.0,6.0,58,0.00,,,0.06,WUHU216DAVISVP2,2013-04-22 14:34:00,
2013-04-22 10:35:00,50.9,37.1,29.47,ESE,122,2.0,6.0,59,0.00,,,0.06,WUHU216DAVISVP2,2013-04-22 14:35:00,
2013-04-22 10:38:00,51.0,36.4,29.47,SE,133,6.0,7.0,57,0.00,,,0.06,WUHU216DAVISVP2,2013-04-22 14:38:00,
2013-04-22 10:39:00,51.1,36.0,29.47,East,95,5.0,7.0,56,0.00,,,0.06,WUHU216DAVISVP2,2013-04-22 14:39:00,
2013-04-22 10:40:00,51.1,35.5,29.47,SSE,156,4.0,7.0,55,0.00,,,0.06,WUHU216DAVISVP2,2013-04-22 14:40:00,
2013-04-22 10:43:00,51.1,36.0,29.47,South,173,7.0,9.0,56,0.00,,,0.06,WUHU216DAVISVP2,2013-04-22 14:43:00,
2013-04-22 10:45:00,51.1,36.0,29.47,South,176,0.0,9.0,56,0.00,,,0.06,WUHU216DAVISVP2,2013-04-22 14:45:00,
2013-04-22 10:46:00,51.1,36.5,29.47,South,175,6.0,9.0,57,0.00,,,0.06,WUHU216DAVISVP2,2013-04-22 14:46:00,
2013-04-22 10:48:00,51.3,37.1,29.47,SE,127,5.0,9.0,58,0.01,,,0.07,WUHU216DAVISVP2,2013-04-22 14:48:00,
2013-04-22 10:50:00,51.5,37.3,29.47,East,89,2.0,9.0,58,0.01,,,0.07,WUHU216DAVISVP2,2013-04-22 14:50:00,
2013-04-22 10:51:00,51.7,37.0,29.47,SE,137,6.0,9.0,57,0.01,,,0.07,WUHU216DAVISVP2,2013-04-22 14:51:00,
2013-04-22 10:53:00,51.8,35.7,29.47,SE,129,4.0,9.0,54,0.01,,,0.07,WUHU216DAVISVP2,2013-04-22 14:53:00,
2013-04-22 10:55:00,51.9,36.3,29.47,South,172,3.0,9.0,55,0.01,,,0.07,WUHU216DAVISVP2,2013-04-22 14:55:00,
2013-04-22 10:56:00,51.9,36.3,29.47,SSE,157,8.0,10.0,55,0.01,,,0.07,WUHU216DAVISVP2,2013-04-22 14:56:00,
2013-04-22 10:58:00,52.0,35.9,29.47,ENE,73,2.0,11.0,54,0.01,,,0.07,WUHU216DAVISVP2,2013-04-22 14:58:00,
2013-04-22 11:00:00,52.2,36.1,29.47,SSE,164,5.0,11.0,54,0.01,,,0.07,WUHU216DAVISVP2,2013-04-22 15:00:00,
2013-04-22 11:01:00,52.3,36.2,29.47,SSW,209,4.0,11.0,54,0.01,,,0.07,WUHU216DAVISVP2,2013-04-22 15:01:00,
2013-04-22 11:02:00,52.3,36.2,29.47,South,169,6.0,11.0,54,0.01,,,0.07,WUHU216DAVISVP2,2013-04-22 15:02:00,
2013-04-22 11:03:00,52.4,35.8,29.47,SE,126,5.0,11.0,53,0.01,,,0.07,WUHU216DAVISVP2,2013-04-22 15:03:00,
2013-04-22 11:04:00,52.5,36.8,29.47,SE,135,5.0,11.0,55,0.01,,,0.07,WUHU216DAVISVP2,2013-04-22 15:04:00,
2013-04-22 11:05:00,52.7,37.0,29.47,ESE,120,6.0,11.0,55,0.01,,,0.07,WUHU216DAVISVP2,2013-04-22 15:05:00,
2013-04-22 11:06:00,52.7,36.6,29.47,ESE,108,9.0,11.0,54,0.01,,,0.07,WUHU216DAVISVP2,2013-04-22 15:06:00,
2013-04-22 11:07:00,52.7,36.6,29.47,ESE,112,6.0,11.0,54,0.01,,,0.07,WUHU216DAVISVP2,2013-04-22 15:07:00,
2013-04-22 11:08:00,52.7,36.1,29.47,East,100,6.0,11.0,53,0.01,,,0.07,WUHU216DAVISVP2,2013-04-22 15:08:00,
2013-04-22 11:09:00,52.8,36.2,29.47,SSE,160,5.0,11.0,53,0.01,,,0.07,WUHU216DAVISVP2,2013-04-22 15:09:00,
2013-04-22 11:10:00,53.0,36.3,29.47,SE,145,7.0,11.0,53,0.01,,,0.07,WUHU216DAVISVP2,2013-04-22 15:10:00,
2013-04-22 11:12:00,53.0,36.3,29.47,SE,145,7.0,11.0,53,0.01,,,0.07,WUHU216DAVISVP2,2013-04-22 15:12:00,
2013-04-22 11:13:00,53.0,35.9,29.47,ESE,120,4.0,11.0,52,0.01,,,0.07,WUHU216DAVISVP2,2013-04-22 15:13:00,
2013-04-22 11:14:00,53.0,35.9,29.47,ESE,112,4.0,11.0,52,0.01,,,0.07,WUHU216DAVISVP2,2013-04-22 15:14:00,
2013-04-22 11:16:00,53.2,37.0,29.47,SSW,195,1.0,11.0,54,0.01,,,0.07,WUHU216DAVISVP2,2013-04-22 15:16:00,
2013-04-22 11:17:00,53.3,37.1,29.47,SSE,149,7.0,11.0,54,0.01,,,0.07,WUHU216DAVISVP2,2013-04-22 15:17:00,
2013-04-22 11:18:00,53.4,35.7,29.47,South,181,4.0,11.0,51,0.01,,,0.07,WUHU216DAVISVP2,2013-04-22 15:18:00,
2013-04-22 11:19:00,53.5,35.8,29.47,South,183,6.0,11.0,51,0.01,,,0.07,WUHU216DAVISVP2,2013-04-22 15:19:00,
2013-04-22 11:21:00,53.7,36.5,29.47,East,99,2.0,11.0,52,0.01,,,0.07,WUHU216DAVISVP2,2013-04-22 15:21:00,
2013-04-22 11:22:00,53.8,36.6,29.47,ESE,116,2.0,11.0,52,0.01,,,0.07,WUHU216DAVISVP2,2013-04-22 15:22:00,
2013-04-22 11:24:00,54.1,37.3,29.47,South,174,3.0,11.0,53,0.01,,,0.07,WUHU216DAVISVP2,2013-04-22 15:24:00,
2013-04-22 11:26:00,54.6,36.3,29.47,ESE,112,7.0,11.0,50,0.01,,,0.07,WUHU216DAVISVP2,2013-04-22 15:26:00,
2013-04-22 11:27:00,54.6,36.3,29.47,East,97,6.0,11.0,50,0.01,,,0.07,WUHU216DAVISVP2,2013-04-22 15:27:00,
2013-04-22 11:29:00,54.7,35.9,29.47,SSE,164,8.0,11.0,49,0.01,,,0.07,WUHU216DAVISVP2,2013-04-22 15:29:00,
2013-04-22 11:31:00,54.6,35.8,29.47,South,181,5.0,11.0,49,0.01,,,0.07,WUHU216DAVISVP2,2013-04-22 15:31:00,
2013-04-22 11:32:00,54.6,35.8,29.47,South,182,5.0,11.0,49,0.01,,,0.07,WUHU216DAVISVP2,2013-04-22 15:32:00,
2013-04-22 11:34:00,54.7,36.4,29.47,SSE,149,4.0,11.0,50,0.01,,,0.07,WUHU216DAVISVP2,2013-04-22 15:34:00,
2013-04-22 11:37:00,54.8,36.5,29.47,ESE,114,2.0,9.0,50,0.01,,,0.07,WUHU216DAVISVP2,2013-04-22 15:37:00,
2013-04-22 11:38:00,54.9,37.1,29.47,SE,142,7.0,9.0,51,0.01,,,0.07,WUHU216DAVISVP2,2013-04-22 15:38:00,
2013-04-22 11:39:00,55.0,36.7,29.47,SSE,150,5.0,9.0,50,0.01,,,0.07,WUHU216DAVISVP2,2013-04-22 15:39:00,
2013-04-22 11:40:00,55.1,36.2,29.47,SE,132,5.0,9.0,49,0.01,,,0.07,WUHU216DAVISVP2,2013-04-22 15:40:00,
2013-04-22 11:42:00,55.2,35.3,29.47,ESE,114,5.0,9.0,47,0.01,,,0.07,WUHU216DAVISVP2,2013-04-22 15:42:00,
2013-04-22 11:43:00,55.2,35.3,29.47,East,99,6.0,9.0,47,0.01,,,0.07,WUHU216DAVISVP2,2013-04-22 15:43:00,
2013-04-22 11:44:00,55.3,35.9,29.46,ESE,119,6.0,9.0,48,0.01,,,0.07,WUHU216DAVISVP2,2013-04-22 15:44:00,
2013-04-22 11:45:00,55.4,36.5,29.46,ESE,119,4.0,9.0,49,0.01,,,0.07,WUHU216DAVISVP2,2013-04-22 15:45:00,
2013-04-22 11:47:00,55.6,36.7,29.47,South,169,4.0,9.0,49,0.00,,,0.07,WUHU216DAVISVP2,2013-04-22 15:47:00,
2013-04-22 11:48:00,55.7,35.7,29.46,South,180,5.0,9.0,47,0.00,,,0.07,WUHU216DAVISVP2,2013-04-22 15:48:00,
2013-04-22 11:49:00,55.8,35.8,29.46,SE,142,5.0,9.0,47,0.00,,,0.07,WUHU216DAVISVP2,2013-04-22 15:49:00,
2013-04-22 11:50:00,55.9,35.3,29.46,SSE,162,8.0,9.0,46,0.00,,,0.07,WUHU216DAVISVP2,2013-04-22 15:50:00,
2013-04-22 11:52:00,56.0,35.4,29.46,SE,126,1.0,9.0,46,0.00,,,0.07,WUHU216DAVISVP2,2013-04-22 15:52:00,
2013-04-22 11:53:00,56.1,35.5,29.47,East,95,4.0,9.0,46,0.00,,,0.07,WUHU216DAVISVP2,2013-04-22 15:53:00,
2013-04-22 11:54:00,56.3,35.7,29.47,ESE,102,2.0,9.0,46,0.00,,,0.07,WUHU216DAVISVP2,2013-04-22 15:54:00,
2013-04-22 11:55:00,56.4,35.8,29.47,ESE,110,1.0,9.0,46,0.00,,,0.07,WUHU216DAVISVP2,2013-04-22 15:55:00,
2013-04-22 11:57:00,56.5,34.7,29.47,East,84,1.0,8.0,44,0.00,,,0.07,WUHU216DAVISVP2,2013-04-22 15:57:00,
2013-04-22 11:58:00,56.6,35.4,29.46,SE,137,1.0,8.0,45,0.00,,,0.07,WUHU216DAVISVP2,2013-04-22 15:58:00,
2013-04-22 11:59:00,56.7,35.5,29.46,South,185,8.0,8.0,45,0.00,,,0.07,WUHU216DAVISVP2,2013-04-22 15:59:00,
2013-04-22 12:00:00,56.7,34.9,29.46,SSW,201,0.0,8.0,44,0.00,,,0.07,WUHU216DAVISVP2,2013-04-22 16:00:00,
2013-04-22 12:02:00,56.6,34.2,29.46,SW,223,2.0,8.0,43,0.00,,,0.07,WUHU216DAVISVP2,2013-04-22 16:02:00,
2013-04-22 12:03:00,56.6,35.4,29.46,West,266,0.0,8.0,45,0.00,,,0.07,WUHU216DAVISVP2,2013-04-22 16:03:00,
2013-04-22 12:04:00,56.6,36.0,29.46,SW,223,0.0,8.0,46,0.00,,,0.07,WUHU216DAVISVP2,2013-04-22 16:04:00,
2013-04-22 12:05:00,56.6,35.5,29.46,ESE,118,4.0,8.0,45,0.00,,,0.07,WUHU216DAVISVP2,2013-04-22 16:05:00,
2013-04-22 12:07:00,56.9,36.9,29.46,South,185,1.0,8.0,47,0.00,,,0.07,WUHU216DAVISVP2,2013-04-22 16:07:00,
2013-04-22 12:08:00,57.0,35.3,29.46,SSE,162,8.0,11.0,44,0.00,,,0.07,WUHU216DAVISVP2,2013-04-22 16:08:00,
2013-04-22 12:10:00,57.1,35.4,29.46,SSE,160,4.0,11.0,44,0.00,,,0.07,WUHU216DAVISVP2,2013-04-22 16:10:00,
2013-04-22 12:12:00,57.3,35.6,29.46,SE,125,4.0,11.0,44,0.00,,,0.07,WUHU216DAVISVP2,2013-04-22 16:12:00,
2013-04-22 12:13:00,57.3,35.6,29.46,East,101,6.0,11.0,44,0.00,,,0.07,WUHU216DAVISVP2,2013-04-22 16:13:00,
2013-04-22 12:15:00,57.4,34.4,29.46,ESE,119,4.0,11.0,42,0.00,,,0.07,WUHU216DAVISVP2,2013-04-22 16:15:00,
2013-04-22 12:18:00,57.5,33.8,29.46,South,177,9.0,11.0,41,0.00,,,0.07,WUHU216DAVISVP2,2013-04-22 16:18:00,
2013-04-22 12:19:00,57.4,31.1,29.46,SSE,149,4.0,11.0,37,0.00,,,0.07,WUHU216DAVISVP2,2013-04-22 16:19:00,
2013-04-22 12:20:00,57.3,31.0,29.46,SE,142,2.0,11.0,37,0.00,,,0.07,WUHU216DAVISVP2,2013-04-22 16:20:00,
2013-04-22 12:23:00,57.5,33.8,29.45,SE,125,2.0,11.0,41,0.00,,,0.07,WUHU216DAVISVP2,2013-04-22 16:23:00,
2013-04-22 12:24:00,57.6,33.9,29.45,SW,226,8.0,11.0,41,0.00,,,0.07,WUHU216DAVISVP2,2013-04-22 16:24:00,
2013-04-22 12:25:00,57.6,32.0,29.45,SW,218,5.0,11.0,38,0.00,,,0.07,WUHU216DAVISVP2,2013-04-22 16:25:00,
2013-04-22 12:26:00,57.6,31.3,29.45,SSE,156,9.0,11.0,37,0.00,,,0.07,WUHU216DAVISVP2,2013-04-22 16:26:00,
2013-04-22 12:28:00,57.6,29.9,29.45,WSW,243,8.0,11.0,35,0.00,,,0.07,WUHU216DAVISVP2,2013-04-22 16:28:00,
2013-04-22 12:29:00,57.5,30.5,29.45,SSE,158,4.0,11.0,36,0.00,,,0.07,WUHU216DAVISVP2,2013-04-22 16:29:00,
2013-04-22 12:30:00,57.4,30.4,29.45,South,179,4.0,11.0,36,0.00,,,0.07,WUHU216DAVISVP2,2013-04-22 16:30:00,
2013-04-22 12:31:00,57.4,31.1,29.45,SSW,201,2.0,11.0,37,0.00,,,0.07,WUHU216DAVISVP2,2013-04-22 16:31:00,
2013-04-22 12:33:00,57.4,31.1,29.45,SW,234,6.0,14.0,37,0.00,,,0.07,WUHU216DAVISVP2,2013-04-22 16:33:00,
2013-04-22 12:34:00,57.4,31.1,29.45,SW,222,6.0,14.0,37,0.00,,,0.07,WUHU216DAVISVP2,2013-04-22 16:34:00,
2013-04-22 12:35:00,57.5,31.9,29.45,South,179,5.0,14.0,38,0.00,,,0.07,WUHU216DAVISVP2,2013-04-22 16:35:00,
2013-04-22 12:36:00,57.6,32.6,29.45,SSE,166,7.0,14.0,39,0.00,,,0.07,WUHU216DAVISVP2,2013-04-22 16:36:00,
2013-04-22 12:39:00,57.8,32.8,29.45,ESE,110,4.0,14.0,39,0.00,,,0.07,WUHU216DAVISVP2,2013-04-22 16:39:00,
2013-04-22 12:40:00,57.9,32.9,29.44,SE,141,4.0,14.0,39,0.00,,,0.07,WUHU216DAVISVP2,2013-04-22 16:40:00,
2013-04-22 12:41:00,57.9,32.9,29.44,ESE,114,2.0,14.0,39,0.00,,,0.07,WUHU216DAVISVP2,2013-04-22 16:41:00,
2013-04-22 12:44:00,58.1,33.7,29.44,SSW,199,1.0,14.0,40,0.00,,,0.07,WUHU216DAVISVP2,2013-04-22 16:44:00,
2013-04-22 12:45:00,58.2,33.2,29.44,South,185,2.0,14.0,39,0.00,,,0.07,WUHU216DAVISVP2,2013-04-22 16:45:00,
2013-04-22 12:46:00,58.2,33.8,29.44,South,183,4.0,14.0,40,0.00,,,0.07,WUHU216DAVISVP2,2013-04-22 16:46:00,
2013-04-22 12:49:00,58.1,33.1,29.44,South,184,9.0,15.0,39,0.00,,,0.07,WUHU216DAVISVP2,2013-04-22 16:49:00,
2013-04-22 12:50:00,58.0,33.0,29.44,SSW,197,7.0,15.0,39,0.00,,,0.07,WUHU216DAVISVP2,2013-04-22 16:50:00,
2013-04-22 12:51:00,57.8,33.5,29.44,ESE,107,5.0,15.0,40,0.00,,,0.07,WUHU216DAVISVP2,2013-04-22 16:51:00,
2013-04-22 12:54:00,57.7,32.7,29.44,ESE,113,7.0,15.0,39,0.00,,,0.07,WUHU216DAVISVP2,2013-04-22 16:54:00,
2013-04-22 12:55:00,57.6,32.6,29.44,ESE,121,4.0,15.0,39,0.00,,,0.07,WUHU216DAVISVP2,2013-04-22 16:55:00,
2013-04-22 12:56:00,57.6,33.9,29.44,South,177,11.0,15.0,41,0.00,,,0.07,WUHU216DAVISVP2,2013-04-22 16:56:00,
2013-04-22 12:57:00,57.7,34.0,29.43,SE,134,5.0,15.0,41,0.00,,,0.07,WUHU216DAVISVP2,2013-04-22 16:57:00,
2013-04-22 12:59:00,58.0,35.5,29.43,SSE,166,2.0,15.0,43,0.00,,,0.07,WUHU216DAVISVP2,2013-04-22 16:59:00,
2013-04-22 13:00:00,58.0,36.1,29.43,SSW,207,2.0,15.0,44,0.00,,,0.07,WUHU216DAVISVP2,2013-04-22 17:00:00,
2013-04-22 13:01:00,58.2,35.7,29.43,ESE,102,5.0,15.0,43,0.00,,,0.07,WUHU216DAVISVP2,2013-04-22 17:01:00,
2013-04-22 13:02:00,58.4,35.3,29.43,South,185,9.0,15.0,42,0.00,,,0.07,WUHU216DAVISVP2,2013-04-22 17:02:00,
2013-04-22 13:05:00,58.5,34.7,29.43,SSE,160,9.0,15.0,41,0.00,,,0.07,WUHU216DAVISVP2,2013-04-22 17:05:00,
2013-04-22 13:06:00,58.5,34.1,29.43,SSW,199,6.0,15.0,40,0.00,,,0.07,WUHU216DAVISVP2,2013-04-22 17:06:00,
2013-04-22 13:07:00,58.5,34.7,29.43,SSE,166,10.0,15.0,41,0.00,,,0.07,WUHU216DAVISVP2,2013-04-22 17:07:00,
2013-04-22 13:10:00,58.1,33.7,29.43,South,187,0.0,12.0,40,0.00,,,0.07,WUHU216DAVISVP2,2013-04-22 17:10:00,
2013-04-22 13:11:00,58.1,34.4,29.43,WSW,253,2.0,12.0,41,0.00,,,0.07,WUHU216DAVISVP2,2013-04-22 17:11:00,
2013-04-22 13:12:00,58.1,34.4,29.43,WSW,253,1.0,12.0,41,0.00,,,0.07,WUHU216DAVISVP2,2013-04-22 17:12:00,
2013-04-22 13:16:00,58.6,35.4,29.43,ESE,110,5.0,12.0,42,0.00,,,0.07,WUHU216DAVISVP2,2013-04-22 17:16:00,
2013-04-22 13:17:00,58.7,35.5,29.43,ESE,122,7.0,12.0,42,0.00,,,0.07,WUHU216DAVISVP2,2013-04-22 17:17:00,
2013-04-22 13:21:00,59.0,35.8,29.42,South,186,6.0,12.0,42,0.00,,,0.07,WUHU216DAVISVP2,2013-04-22 17:21:00,
2013-04-22 13:22:00,59.0,33.9,29.42,SW,222,6.0,15.0,39,0.00,,,0.07,WUHU216DAVISVP2,2013-04-22 17:22:00,
2013-04-22 13:26:00,59.1,35.3,29.42,South,176,5.0,15.0,41,0.00,,,0.07,WUHU216DAVISVP2,2013-04-22 17:26:00,
2013-04-22 13:27:00,59.1,33.3,29.42,SSE,147,4.0,15.0,38,0.00,,,0.07,WUHU216DAVISVP2,2013-04-22 17:27:00,
2013-04-22 13:31:00,58.9,33.1,29.42,South,177,8.0,15.0,38,0.00,,,0.07,WUHU216DAVISVP2,2013-04-22 17:31:00,
2013-04-22 13:32:00,58.9,33.1,29.42,SW,221,0.0,15.0,38,0.00,,,0.07,WUHU216DAVISVP2,2013-04-22 17:32:00,
2013-04-22 13:33:00,59.0,33.9,29.42,SW,221,0.0,15.0,39,0.00,,,0.07,WUHU216DAVISVP2,2013-04-22 17:33:00,
2013-04-22 13:36:00,59.4,33.6,29.42,South,174,8.0,15.0,38,0.00,,,0.07,WUHU216DAVISVP2,2013-04-22 17:36:00,
2013-04-22 13:37:00,59.5,33.7,29.42,South,183,13.0,15.0,38,0.00,,,0.07,WUHU216DAVISVP2,2013-04-22 17:37:00,
2013-04-22 13:38:00,59.5,32.3,29.42,South,183,5.0,15.0,36,0.00,,,0.07,WUHU216DAVISVP2,2013-04-22 17:38:00,
2013-04-22 13:42:00,59.5,32.3,29.42,SSE,161,6.0,13.0,36,0.00,,,0.07,WUHU216DAVISVP2,2013-04-22 17:42:00,
2013-04-22 13:43:00,59.5,32.3,29.42,WSW,243,6.0,13.0,36,0.00,,,0.07,WUHU216DAVISVP2,2013-04-22 17:43:00,
2013-04-22 13:48:00,59.7,31.8,29.41,SE,134,6.0,13.0,35,0.00,,,0.07,WUHU216DAVISVP2,2013-04-22 17:48:00,
2013-04-22 13:49:00,59.7,32.5,29.41,ESE,122,5.0,13.0,36,0.00,,,0.07,WUHU216DAVISVP2,2013-04-22 17:49:00,
2013-04-22 13:53:00,59.8,33.9,29.41,SSW,203,3.0,13.0,38,0.00,,,0.07,WUHU216DAVISVP2,2013-04-22 17:53:00,
2013-04-22 13:54:00,59.8,33.3,29.41,SW,224,4.0,13.0,37,0.00,,,0.07,WUHU216DAVISVP2,2013-04-22 17:54:00,
2013-04-22 13:58:00,59.6,29.5,29.41,ESE,122,11.0,15.0,32,0.00,,,0.07,WUHU216DAVISVP2,2013-04-22 17:58:00,
2013-04-22 13:59:00,59.6,30.2,29.41,SSW,197,5.0,15.0,33,0.00,,,0.07,WUHU216DAVISVP2,2013-04-22 17:59:00,
2013-04-22 14:03:00,60.0,32.0,29.40,East,95,4.0,15.0,35,0.00,,,0.07,WUHU216DAVISVP2,2013-04-22 18:03:00,
2013-04-22 14:04:00,60.0,32.0,29.40,East,93,5.0,15.0,35,0.00,,,0.07,WUHU216DAVISVP2,2013-04-22 18:04:00,
2013-04-22 14:08:00,60.2,32.9,29.40,ESE,104,6.0,15.0,36,0.00,,,0.07,WUHU216DAVISVP2,2013-04-22 18:08:00,
2013-04-22 14:09:00,60.3,33.0,29.40,East,97,6.0,15.0,36,0.00,,,0.07,WUHU216DAVISVP2,2013-04-22 18:09:00,
2013-04-22 14:13:00,60.4,32.4,29.40,SE,139,9.0,15.0,35,0.00,,,0.07,WUHU216DAVISVP2,2013-04-22 18:13:00,
2013-04-22 14:14:00,60.4,32.4,29.40,ESE,116,7.0,13.0,35,0.00,,,0.07,WUHU216DAVISVP2,2013-04-22 18:14:00,
2013-04-22 14:19:00,60.4,33.1,29.40,ESE,113,6.0,12.0,36,0.00,,,0.07,WUHU216DAVISVP2,2013-04-22 18:19:00,
2013-04-22 14:24:00,60.8,32.8,29.39,SE,145,10.0,12.0,35,0.00,,,0.07,WUHU216DAVISVP2,2013-04-22 18:24:00,
2013-04-22 14:25:00,60.8,32.8,29.39,SE,127,6.0,12.0,35,0.00,,,0.07,WUHU216DAVISVP2,2013-04-22 18:25:00,
2013-04-22 14:29:00,60.9,33.0,29.39,SE,128,6.0,15.0,35,0.00,,,0.07,WUHU216DAVISVP2,2013-04-22 18:29:00,
2013-04-22 14:30:00,60.8,33.0,29.39,SE,135,7.0,15.0,35,0.00,,,0.07,WUHU216DAVISVP2,2013-04-22 18:30:00,
2013-04-22 14:35:00,60.7,33.6,29.39,East,101,6.0,15.0,36,0.00,,,0.07,WUHU216DAVISVP2,2013-04-22 18:35:00,
2013-04-22 14:40:00,61.2,34.0,29.39,ESE,121,10.0,15.0,36,0.00,,,0.07,WUHU216DAVISVP2,2013-04-22 18:40:00,
2013-04-22 14:45:00,61.8,34.4,29.39,ENE,78,3.0,15.0,36,0.00,,,0.07,WUHU216DAVISVP2,2013-04-22 18:45:00,
2013-04-22 14:50:00,62.0,33.8,29.39,SSE,154,7.0,15.0,35,0.00,,,0.07,WUHU216DAVISVP2,2013-04-22 18:50:00,
2013-04-22 14:51:00,62.0,33.8,29.39,SW,233,12.0,15.0,35,0.00,,,0.07,WUHU216DAVISVP2,2013-04-22 18:51:00,
2013-04-22 14:55:00,61.8,34.4,29.39,SSE,161,6.0,20.0,36,0.00,,,0.07,WUHU216DAVISVP2,2013-04-22 18:55:00,
2013-04-22 14:56:00,61.8,34.4,29.39,South,176,12.0,20.0,36,0.00,,,0.07,WUHU216DAVISVP2,2013-04-22 18:56:00,
2013-04-22 15:00:00,61.9,34.4,29.40,SE,129,7.0,20.0,36,0.00,,,0.07,WUHU216DAVISVP2,2013-04-22 19:00:00,
2013-04-22 15:01:00,61.9,34.4,29.40,SE,143,5.0,20.0,36,0.00,,,0.07,WUHU216DAVISVP2,2013-04-22 19:01:00,
2013-04-22 15:06:00,61.8,34.4,29.40,East,79,3.0,20.0,36,0.00,,,0.07,WUHU216DAVISVP2,2013-04-22 19:06:00,
2013-04-22 15:11:00,62.1,35.3,29.39,East,85,4.0,12.0,37,0.00,,,0.07,WUHU216DAVISVP2,2013-04-22 19:11:00,
2013-04-22 15:12:00,62.2,36.1,29.39,SE,137,4.0,12.0,38,0.00,,,0.07,WUHU216DAVISVP2,2013-04-22 19:12:00,
2013-04-22 15:16:00,62.9,36.0,29.39,SE,129,5.0,11.0,37,0.00,,,0.07,WUHU216DAVISVP2,2013-04-22 19:16:00,
2013-04-22 15:17:00,62.9,35.3,29.39,ESE,106,5.0,11.0,36,0.00,,,0.07,WUHU216DAVISVP2,2013-04-22 19:17:00,
2013-04-22 15:21:00,63.0,36.1,29.39,South,189,8.0,11.0,37,0.00,,,0.07,WUHU216DAVISVP2,2013-04-22 19:21:00,
2013-04-22 15:22:00,63.0,35.4,29.39,South,186,9.0,11.0,36,0.00,,,0.07,WUHU216DAVISVP2,2013-04-22 19:22:00,
2013-04-22 15:27:00,63.1,36.2,29.39,SW,215,3.0,12.0,37,0.00,,,0.07,WUHU216DAVISVP2,2013-04-22 19:27:00,
2013-04-22 15:28:00,63.1,35.5,29.39,South,182,5.0,12.0,36,0.00,,,0.07,WUHU216DAVISVP2,2013-04-22 19:28:00,
2013-04-22 15:32:00,63.0,34.9,29.38,East,98,5.0,12.0,35,0.00,,,0.07,WUHU216DAVISVP2,2013-04-22 19:32:00,
2013-04-22 15:33:00,62.8,34.7,29.38,ESE,120,4.0,12.0,35,0.00,,,0.07,WUHU216DAVISVP2,2013-04-22 19:33:00,
2013-04-22 15:37:00,62.6,35.3,29.38,ENE,65,5.0,12.0,36,0.00,,,0.07,WUHU216DAVISVP2,2013-04-22 19:37:00,
2013-04-22 15:38:00,62.6,35.3,29.38,ENE,68,1.0,12.0,36,0.00,,,0.07,WUHU216DAVISVP2,2013-04-22 19:38:00,
2013-04-22 15:42:00,63.0,37.0,29.37,South,173,6.0,10.0,38,0.00,,,0.07,WUHU216DAVISVP2,2013-04-22 19:42:00,
2013-04-22 15:43:00,63.1,37.1,29.38,South,187,1.0,12.0,38,0.00,,,0.07,WUHU216DAVISVP2,2013-04-22 19:43:00,
2013-04-22 15:44:00,63.1,35.7,29.38,SSE,162,7.0,12.0,36,0.00,,,0.07,WUHU216DAVISVP2,2013-04-22 19:44:00,
2013-04-22 15:47:00,63.0,35.4,29.38,WSW,239,4.0,12.0,36,0.00,,,0.07,WUHU216DAVISVP2,2013-04-22 19:47:00,
2013-04-22 15:48:00,63.0,35.4,29.38,South,181,4.0,12.0,36,0.00,,,0.07,WUHU216DAVISVP2,2013-04-22 19:48:00,
2013-04-22 15:49:00,62.9,35.5,29.37,East,92,6.0,12.0,36,0.00,,,0.07,WUHU216DAVISVP2,2013-04-22 19:49:00,
2013-04-22 15:52:00,62.9,35.5,29.37,East,84,9.0,12.0,36,0.00,,,0.07,WUHU216DAVISVP2,2013-04-22 19:52:00,
2013-04-22 15:53:00,62.9,35.3,29.36,East,85,3.0,12.0,36,0.00,,,0.07,WUHU216DAVISVP2,2013-04-22 19:53:00,
2013-04-22 15:54:00,62.9,35.3,29.36,East,89,5.0,12.0,36,0.00,,,0.07,WUHU216DAVISVP2,2013-04-22 19:54:00,
2013-04-22 15:57:00,62.8,35.2,29.36,East,101,10.0,12.0,36,0.00,,,0.07,WUHU216DAVISVP2,2013-04-22 19:57:00,
2013-04-22 15:58:00,62.8,35.2,29.36,SE,124,6.0,12.0,36,0.00,,,0.07,WUHU216DAVISVP2,2013-04-22 19:58:00,
2013-04-22 16:00:00,63.0,34.7,29.36,ESE,112,9.0,12.0,35,0.00,,,0.07,WUHU216DAVISVP2,2013-04-22 20:00:00,
2013-04-22 16:02:00,63.2,34.9,29.36,SSE,166,8.0,12.0,35,0.00,,,0.07,WUHU216DAVISVP2,2013-04-22 20:02:00,
2013-04-22 16:03:00,63.1,34.8,29.36,South,174,5.0,12.0,35,0.00,,,0.07,WUHU216DAVISVP2,2013-04-22 20:03:00,
2013-04-22 16:05:00,63.2,34.9,29.36,SSW,193,0.0,12.0,35,0.00,,,0.07,WUHU216DAVISVP2,2013-04-22 20:05:00,
2013-04-22 16:08:00,63.5,35.1,29.36,South,174,12.0,12.0,35,0.00,,,0.07,WUHU216DAVISVP2,2013-04-22 20:08:00,
2013-04-22 16:09:00,63.5,35.1,29.36,South,185,2.0,12.0,35,0.00,,,0.07,WUHU216DAVISVP2,2013-04-22 20:09:00,
2013-04-22 16:10:00,63.4,34.3,29.36,South,170,4.0,12.0,34,0.00,,,0.07,WUHU216DAVISVP2,2013-04-22 20:10:00,
2013-04-22 16:13:00,63.3,35.7,29.35,ESE,104,5.0,12.0,36,0.00,,,0.07,WUHU216DAVISVP2,2013-04-22 20:13:00,
2013-04-22 16:14:00,63.4,35.1,29.35,East,93,6.0,12.0,35,0.00,,,0.07,WUHU216DAVISVP2,2013-04-22 20:14:00,
2013-04-22 16:15:00,63.3,35.7,29.35,ESE,122,3.0,12.0,36,0.00,,,0.07,WUHU216DAVISVP2,2013-04-22 20:15:00,
2013-04-22 16:18:00,63.6,36.0,29.35,SSE,149,7.0,12.0,36,0.00,,,0.07,WUHU216DAVISVP2,2013-04-22 20:18:00,
2013-04-22 16:19:00,63.6,35.2,29.35,SSE,168,10.0,12.0,35,0.00,,,0.07,WUHU216DAVISVP2,2013-04-22 20:19:00,
2013-04-22 16:20:00,63.6,34.5,29.35,South,171,11.0,15.0,34,0.00,,,0.07,WUHU216DAVISVP2,2013-04-22 20:20:00,
2013-04-22 16:23:00,63.6,35.2,29.35,SE,141,6.0,15.0,35,0.00,,,0.07,WUHU216DAVISVP2,2013-04-22 20:23:00,
2013-04-22 16:24:00,63.6,35.2,29.35,SW,214,4.0,15.0,35,0.00,,,0.07,WUHU216DAVISVP2,2013-04-22 20:24:00,
2013-04-22 16:26:00,63.7,35.3,29.35,South,188,10.0,15.0,35,0.00,,,0.07,WUHU216DAVISVP2,2013-04-22 20:26:00,
2013-04-22 16:28:00,63.6,34.5,29.35,SW,216,4.0,15.0,34,0.00,,,0.07,WUHU216DAVISVP2,2013-04-22 20:28:00,
2013-04-22 16:29:00,63.5,34.4,29.35,WSW,241,7.0,15.0,34,0.00,,,0.07,WUHU216DAVISVP2,2013-04-22 20:29:00,
2013-04-22 16:30:00,63.5,34.4,29.35,South,191,4.0,15.0,34,0.00,,,0.07,WUHU216DAVISVP2,2013-04-22 20:30:00,
2013-04-22 16:31:00,63.5,35.9,29.35,SSW,206,1.0,15.0,36,0.00,,,0.07,WUHU216DAVISVP2,2013-04-22 20:31:00,
2013-04-22 16:33:00,63.5,35.1,29.34,South,191,8.0,15.0,35,0.00,,,0.07,WUHU216DAVISVP2,2013-04-22 20:33:00,
2013-04-22 16:34:00,63.5,35.1,29.34,South,187,2.0,15.0,35,0.00,,,0.07,WUHU216DAVISVP2,2013-04-22 20:34:00,
2013-04-22 16:35:00,63.6,35.2,29.34,SE,133,6.0,15.0,35,0.00,,,0.07,WUHU216DAVISVP2,2013-04-22 20:35:00,
2013-04-22 16:36:00,63.7,34.6,29.34,SE,129,2.0,15.0,34,0.00,,,0.07,WUHU216DAVISVP2,2013-04-22 20:36:00,
2013-04-22 16:38:00,63.7,34.6,29.34,East,93,3.0,15.0,34,0.00,,,0.07,WUHU216DAVISVP2,2013-04-22 20:38:00,
2013-04-22 16:39:00,63.7,34.6,29.34,East,95,5.0,15.0,34,0.00,,,0.07,WUHU216DAVISVP2,2013-04-22 20:39:00,
2013-04-22 16:40:00,63.8,36.1,29.34,ESE,112,2.0,11.0,36,0.00,,,0.07,WUHU216DAVISVP2,2013-04-22 20:40:00,
2013-04-22 16:41:00,63.8,36.1,29.34,SE,136,6.0,11.0,36,0.00,,,0.07,WUHU216DAVISVP2,2013-04-22 20:41:00,
2013-04-22 16:43:00,64.1,36.4,29.34,ESE,116,4.0,11.0,36,0.00,,,0.07,WUHU216DAVISVP2,2013-04-22 20:43:00,
2013-04-22 16:44:00,64.1,36.4,29.34,SE,125,4.0,11.0,36,0.00,,,0.07,WUHU216DAVISVP2,2013-04-22 20:44:00,
2013-04-22 16:45:00,64.3,35.9,29.34,SSE,166,8.0,11.0,35,0.00,,,0.07,WUHU216DAVISVP2,2013-04-22 20:45:00,
2013-04-22 16:47:00,64.2,34.3,29.34,South,177,8.0,11.0,33,0.00,,,0.07,WUHU216DAVISVP2,2013-04-22 20:47:00,
2013-04-22 16:48:00,64.1,34.9,29.34,ESE,106,5.0,11.0,34,0.00,,,0.07,WUHU216DAVISVP2,2013-04-22 20:48:00,
2013-04-22 16:49:00,64.0,35.6,29.34,ESE,122,7.0,11.0,35,0.00,,,0.07,WUHU216DAVISVP2,2013-04-22 20:49:00,
2013-04-22 16:50:00,64.1,35.7,29.34,ESE,110,7.0,11.0,35,0.00,,,0.07,WUHU216DAVISVP2,2013-04-22 20:50:00,
2013-04-22 16:52:00,64.0,35.6,29.34,SE,124,3.0,11.0,35,0.00,,,0.07,WUHU216DAVISVP2,2013-04-22 20:52:00,
2013-04-22 16:54:00,64.1,34.9,29.34,ESE,119,4.0,9.0,34,0.00,,,0.07,WUHU216DAVISVP2,2013-04-22 20:54:00,
2013-04-22 16:55:00,64.1,34.9,29.34,ESE,103,7.0,9.0,34,0.00,,,0.07,WUHU216DAVISVP2,2013-04-22 20:55:00,
2013-04-22 16:56:00,64.1,34.9,29.33,SE,127,4.0,9.0,34,0.00,,,0.07,WUHU216DAVISVP2,2013-04-22 20:56:00,
2013-04-22 16:57:00,64.1,34.9,29.33,SE,126,4.0,9.0,34,0.00,,,0.07,WUHU216DAVISVP2,2013-04-22 20:57:00,
2013-04-22 16:59:00,64.2,35.0,29.33,ESE,115,5.0,9.0,34,0.00,,,0.07,WUHU216DAVISVP2,2013-04-22 20:59:00,
2013-04-22 17:00:00,64.2,35.0,29.33,SE,139,4.0,11.0,34,0.00,,,0.07,WUHU216DAVISVP2,2013-04-22 21:00:00,
2013-04-22 17:01:00,64.2,36.5,29.33,SE,141,3.0,11.0,36,0.00,,,0.07,WUHU216DAVISVP2,2013-04-22 21:01:00,
2013-04-22 17:02:00,64.3,35.9,29.33,ESE,118,4.0,11.0,35,0.00,,,0.07,WUHU216DAVISVP2,2013-04-22 21:02:00,
2013-04-22 17:04:00,64.5,36.0,29.33,South,191,2.0,11.0,35,0.00,,,0.07,WUHU216DAVISVP2,2013-04-22 21:04:00,
2013-04-22 17:05:00,64.5,35.3,29.33,SSW,208,3.0,11.0,34,0.00,,,0.07,WUHU216DAVISVP2,2013-04-22 21:05:00,
2013-04-22 17:06:00,64.5,36.0,29.33,South,173,7.0,11.0,35,0.00,,,0.07,WUHU216DAVISVP2,2013-04-22 21:06:00,
2013-04-22 17:07:00,64.6,35.4,29.33,SE,129,1.0,11.0,34,0.00,,,0.07,WUHU216DAVISVP2,2013-04-22 21:07:00,
2013-04-22 17:09:00,64.7,36.2,29.33,ESE,118,5.0,11.0,35,0.00,,,0.07,WUHU216DAVISVP2,2013-04-22 21:09:00,
2013-04-22 17:10:00,64.8,36.3,29.33,ESE,122,5.0,11.0,35,0.00,,,0.07,WUHU216DAVISVP2,2013-04-22 21:10:00,
2013-04-22 17:11:00,64.8,36.3,29.33,ESE,121,5.0,11.0,35,0.00,,,0.07,WUHU216DAVISVP2,2013-04-22 21:11:00,
2013-04-22 17:13:00,64.8,36.5,29.33,SE,139,4.0,11.0,35,0.00,,,0.07,WUHU216DAVISVP2,2013-04-22 21:13:00,
2013-04-22 17:14:00,64.9,36.6,29.33,ESE,120,5.0,11.0,35,0.00,,,0.07,WUHU216DAVISVP2,2013-04-22 21:14:00,
2013-04-22 17:15:00,64.9,36.6,29.33,SSE,153,5.0,11.0,35,0.00,,,0.07,WUHU216DAVISVP2,2013-04-22 21:15:00,
2013-04-22 17:16:00,64.9,36.6,29.33,ESE,107,7.0,11.0,35,0.00,,,0.07,WUHU216DAVISVP2,2013-04-22 21:16:00,
2013-04-22 17:18:00,64.9,36.4,29.33,ESE,116,5.0,8.0,35,0.00,,,0.07,WUHU216DAVISVP2,2013-04-22 21:18:00,
2013-04-22 17:20:00,64.9,35.7,29.33,SW,231,2.0,8.0,34,0.00,,,0.07,WUHU216DAVISVP2,2013-04-22 21:20:00,
2013-04-22 17:21:00,65.0,37.2,29.33,SSW,202,8.0,8.0,36,0.00,,,0.07,WUHU216DAVISVP2,2013-04-22 21:21:00,
2013-04-22 17:24:00,64.8,34.8,29.33,South,173,4.0,12.0,33,0.00,,,0.07,WUHU216DAVISVP2,2013-04-22 21:24:00,
2013-04-22 17:25:00,64.7,34.7,29.32,SW,226,5.0,12.0,33,0.00,,,0.07,WUHU216DAVISVP2,2013-04-22 21:25:00,
2013-04-22 17:26:00,64.7,35.5,29.32,SW,226,5.0,12.0,34,0.00,,,0.07,WUHU216DAVISVP2,2013-04-22 21:26:00,
2013-04-22 17:29:00,64.5,34.5,29.32,South,188,5.0,12.0,33,0.00,,,0.07,WUHU216DAVISVP2,2013-04-22 21:29:00,
2013-04-22 17:30:00,64.4,35.2,29.32,SE,143,4.0,12.0,34,0.00,,,0.07,WUHU216DAVISVP2,2013-04-22 21:30:00,
2013-04-22 17:31:00,64.5,36.0,29.32,ESE,108,4.0,12.0,35,0.00,,,0.07,WUHU216DAVISVP2,2013-04-22 21:31:00,
2013-04-22 17:32:00,64.5,36.0,29.33,SSE,149,5.0,12.0,35,0.00,,,0.07,WUHU216DAVISVP2,2013-04-22 21:32:00,
2013-04-22 17:34:00,64.7,37.1,29.33,SE,143,5.0,12.0,36,0.00,,,0.07,WUHU216DAVISVP2,2013-04-22 21:34:00,
2013-04-22 17:35:00,64.8,37.2,29.33,SE,124,2.0,12.0,36,0.00,,,0.07,WUHU216DAVISVP2,2013-04-22 21:35:00,
2013-04-22 17:36:00,64.9,35.8,29.33,SE,124,5.0,12.0,34,0.00,,,0.07,WUHU216DAVISVP2,2013-04-22 21:36:00,
2013-04-22 17:37:00,64.9,35.1,29.32,SE,137,6.0,12.0,33,0.00,,,0.07,WUHU216DAVISVP2,2013-04-22 21:37:00,
2013-04-22 17:39:00,64.9,35.7,29.32,ESE,111,2.0,12.0,34,0.00,,,0.07,WUHU216DAVISVP2,2013-04-22 21:39:00,
2013-04-22 17:40:00,64.9,35.7,29.32,ESE,111,2.0,12.0,34,0.00,,,0.07,WUHU216DAVISVP2,2013-04-22 21:40:00,
2013-04-22 17:41:00,65.1,37.3,29.32,SSE,151,6.0,11.0,36,0.00,,,0.07,WUHU216DAVISVP2,2013-04-22 21:41:00,
2013-04-22 17:42:00,65.1,35.8,29.32,SSE,157,9.0,11.0,34,0.00,,,0.07,WUHU216DAVISVP2,2013-04-22 21:42:00,
2013-04-22 17:44:00,65.1,35.1,29.32,SSE,167,4.0,11.0,33,0.00,,,0.07,WUHU216DAVISVP2,2013-04-22 21:44:00,
2013-04-22 17:45:00,65.1,35.8,29.32,South,187,7.0,11.0,34,0.00,,,0.07,WUHU216DAVISVP2,2013-04-22 21:45:00,
2013-04-22 17:46:00,65.1,35.1,29.32,SSE,166,6.0,11.0,33,0.00,,,0.07,WUHU216DAVISVP2,2013-04-22 21:46:00,
2013-04-22 17:47:00,65.1,35.8,29.32,SSE,164,5.0,11.0,34,0.00,,,0.07,WUHU216DAVISVP2,2013-04-22 21:47:00,
2013-04-22 17:49:00,65.1,35.8,29.32,SSE,149,2.0,11.0,34,0.00,,,0.07,WUHU216DAVISVP2,2013-04-22 21:49:00,
2013-04-22 17:50:00,65.1,36.0,29.32,SSE,149,0.0,11.0,34,0.00,,,0.07,WUHU216DAVISVP2,2013-04-22 21:50:00,
2013-04-22 17:51:00,65.2,37.6,29.32,SSE,149,0.0,11.0,36,0.00,,,0.07,WUHU216DAVISVP2,2013-04-22 21:51:00,
2013-04-22 17:52:00,65.2,37.6,29.32,SSW,211,1.0,11.0,36,0.00,,,0.07,WUHU216DAVISVP2,2013-04-22 21:52:00,
2013-04-22 17:54:00,65.5,36.4,29.32,SSW,210,0.0,11.0,34,0.00,,,0.07,WUHU216DAVISVP2,2013-04-22 21:54:00,
2013-04-22 17:55:00,65.4,35.5,29.32,SW,222,6.0,11.0,33,0.00,,,0.07,WUHU216DAVISVP2,2013-04-22 21:55:00,
2013-04-22 17:56:00,65.3,35.4,29.31,SSW,211,5.0,11.0,33,0.00,,,0.07,WUHU216DAVISVP2,2013-04-22 21:56:00,
2013-04-22 17:57:00,65.2,35.4,29.31,WSW,251,9.0,11.0,33,0.00,,,0.07,WUHU216DAVISVP2,2013-04-22 21:57:00,
2013-04-22 17:59:00,64.9,35.1,29.31,SW,216,5.0,11.0,33,0.00,,,0.07,WUHU216DAVISVP2,2013-04-22 21:59:00,
2013-04-22 18:00:00,64.9,34.9,29.31,SW,216,2.0,11.0,33,0.00,,,0.07,WUHU216DAVISVP2,2013-04-22 22:00:00,
2013-04-22 18:01:00,64.8,35.6,29.31,SW,216,0.0,11.0,34,0.00,,,0.07,WUHU216DAVISVP2,2013-04-22 22:01:00,
2013-04-22 18:02:00,64.8,35.6,29.31,SW,216,0.0,11.0,34,0.00,,,0.07,WUHU216DAVISVP2,2013-04-22 22:02:00,
2013-04-22 18:05:00,65.1,36.8,29.30,SE,124,8.0,11.0,35,0.00,,,0.07,WUHU216DAVISVP2,2013-04-22 22:05:00,
2013-04-22 18:06:00,65.2,36.8,29.30,ESE,120,2.0,11.0,35,0.00,,,0.07,WUHU216DAVISVP2,2013-04-22 22:06:00,
2013-04-22 18:07:00,65.3,36.9,29.31,SE,146,2.0,11.0,35,0.00,,,0.07,WUHU216DAVISVP2,2013-04-22 22:07:00,
2013-04-22 18:10:00,65.6,36.3,29.31,SSE,167,8.0,11.0,34,0.00,,,0.07,WUHU216DAVISVP2,2013-04-22 22:10:00,
2013-04-22 18:11:00,65.4,35.3,29.31,SE,128,4.0,11.0,33,0.00,,,0.07,WUHU216DAVISVP2,2013-04-22 22:11:00,
2013-04-22 18:12:00,65.4,35.3,29.31,SE,131,3.0,11.0,33,0.00,,,0.07,WUHU216DAVISVP2,2013-04-22 22:12:00,
2013-04-22 18:16:00,65.2,35.2,29.30,SSE,164,2.0,11.0,33,0.00,,,0.07,WUHU216DAVISVP2,2013-04-22 22:16:00,
2013-04-22 18:17:00,65.2,36.1,29.30,South,170,4.0,10.0,34,0.00,,,0.07,WUHU216DAVISVP2,2013-04-22 22:17:00,
2013-04-22 18:21:00,65.2,35.9,29.30,SSE,156,6.0,10.0,34,0.00,,,0.07,WUHU216DAVISVP2,2013-04-22 22:21:00,
2013-04-22 18:22:00,65.2,35.9,29.30,SSE,165,4.0,10.0,34,0.00,,,0.07,WUHU216DAVISVP2,2013-04-22 22:22:00,
2013-04-22 18:26:00,65.4,37.0,29.30,SSE,157,6.0,10.0,35,0.00,,,0.07,WUHU216DAVISVP2,2013-04-22 22:26:00,
2013-04-22 18:27:00,65.4,36.3,29.30,SSE,168,5.0,10.0,34,0.00,,,0.07,WUHU216DAVISVP2,2013-04-22 22:27:00,
2013-04-22 18:28:00,65.5,37.8,29.30,SSE,168,2.0,10.0,36,0.00,,,0.07,WUHU216DAVISVP2,2013-04-22 22:28:00,
2013-04-22 18:32:00,65.6,36.3,29.29,South,181,4.0,9.0,34,0.00,,,0.07,WUHU216DAVISVP2,2013-04-22 22:32:00,
2013-04-22 18:33:00,65.7,37.1,29.30,ESE,112,5.0,9.0,35,0.00,,,0.07,WUHU216DAVISVP2,2013-04-22 22:33:00,
2013-04-22 18:37:00,65.6,35.5,29.29,SSE,148,4.0,11.0,33,0.00,,,0.07,WUHU216DAVISVP2,2013-04-22 22:37:00,
2013-04-22 18:38:00,65.6,35.7,29.29,South,187,5.0,11.0,33,0.00,,,0.07,WUHU216DAVISVP2,2013-04-22 22:38:00,
2013-04-22 18:42:00,65.5,36.4,29.29,SSE,164,5.0,13.0,34,0.00,,,0.07,WUHU216DAVISVP2,2013-04-22 22:42:00,
2013-04-22 18:43:00,65.5,36.4,29.29,SE,143,2.0,13.0,34,0.00,,,0.07,WUHU216DAVISVP2,2013-04-22 22:43:00,
2013-04-22 18:47:00,65.8,37.4,29.29,SE,128,4.0,13.0,35,0.00,,,0.07,WUHU216DAVISVP2,2013-04-22 22:47:00,
2013-04-22 18:48:00,65.8,37.2,29.29,SSE,157,2.0,13.0,35,0.00,,,0.07,WUHU216DAVISVP2,2013-04-22 22:48:00,
2013-04-22 18:52:00,65.9,38.0,29.29,ESE,122,1.0,13.0,36,0.00,,,0.07,WUHU216DAVISVP2,2013-04-22 22:52:00,
2013-04-22 18:53:00,65.9,38.0,29.29,SE,141,4.0,13.0,36,0.00,,,0.07,WUHU216DAVISVP2,2013-04-22 22:53:00,
2013-04-22 18:54:00,65.9,37.3,29.29,SE,128,4.0,13.0,35,0.00,,,0.07,WUHU216DAVISVP2,2013-04-22 22:54:00,
2013-04-22 18:58:00,65.9,38.9,29.28,SSE,162,2.0,13.0,37,0.00,,,0.07,WUHU216DAVISVP2,2013-04-22 22:58:00,
2013-04-22 18:59:00,65.9,37.5,29.28,SSE,162,2.0,9.0,35,0.00,,,0.07,WUHU216DAVISVP2,2013-04-22 22:59:00,
2013-04-22 19:03:00,65.8,38.1,29.28,SSE,150,4.0,8.0,36,0.00,,,0.07,WUHU216DAVISVP2,2013-04-22 23:03:00,
2013-04-22 19:04:00,65.7,37.3,29.28,SE,138,1.0,8.0,35,0.00,,,0.07,WUHU216DAVISVP2,2013-04-22 23:04:00,
2013-04-22 19:08:00,65.7,37.8,29.28,SSE,149,7.0,9.0,36,0.00,,,0.07,WUHU216DAVISVP2,2013-04-22 23:08:00,
2013-04-22 19:09:00,65.6,36.3,29.28,South,170,6.0,11.0,34,0.00,,,0.07,WUHU216DAVISVP2,2013-04-22 23:09:00,
2013-04-22 19:13:00,65.4,35.5,29.28,SSE,153,8.0,11.0,33,0.00,,,0.07,WUHU216DAVISVP2,2013-04-22 23:13:00,
2013-04-22 19:14:00,65.3,35.4,29.28,SSW,211,2.0,11.0,33,0.00,,,0.07,WUHU216DAVISVP2,2013-04-22 23:14:00,
2013-04-22 19:18:00,65.4,36.3,29.28,SE,134,5.0,11.0,34,0.00,,,0.07,WUHU216DAVISVP2,2013-04-22 23:18:00,
2013-04-22 19:19:00,65.4,36.3,29.28,SE,144,2.0,11.0,34,0.00,,,0.07,WUHU216DAVISVP2,2013-04-22 23:19:00,
2013-04-22 19:23:00,65.4,37.6,29.28,SSW,201,4.0,11.0,36,0.00,,,0.07,WUHU216DAVISVP2,2013-04-22 23:23:00,
2013-04-22 19:24:00,65.4,37.6,29.28,SSE,158,5.0,11.0,36,0.00,,,0.07,WUHU216DAVISVP2,2013-04-22 23:24:00,
2013-04-22 19:29:00,65.3,36.9,29.28,SSE,153,6.0,11.0,35,0.00,,,0.07,WUHU216DAVISVP2,2013-04-22 23:29:00,
2013-04-22 19:34:00,65.1,35.3,29.28,SE,139,5.0,11.0,33,0.00,,,0.07,WUHU216DAVISVP2,2013-04-22 23:34:00,
2013-04-22 19:35:00,65.1,35.3,29.28,SSE,164,6.0,11.0,33,0.00,,,0.07,WUHU216DAVISVP2,2013-04-22 23:35:00,
2013-04-22 19:39:00,65.0,35.0,29.28,SSE,162,6.0,11.0,33,0.00,,,0.07,WUHU216DAVISVP2,2013-04-22 23:39:00,
2013-04-22 19:40:00,65.0,35.7,29.28,SSE,164,7.0,11.0,34,0.00,,,0.07,WUHU216DAVISVP2,2013-04-22 23:40:00,
2013-04-22 19:44:00,64.9,35.7,29.28,SSW,198,4.0,12.0,34,0.00,,,0.07,WUHU216DAVISVP2,2013-04-22 23:44:00,
2013-04-22 19:45:00,64.9,35.8,29.28,South,189,2.0,12.0,34,0.00,,,0.07,WUHU216DAVISVP2,2013-04-22 23:45:00,
2013-04-22 19:49:00,64.8,35.8,29.28,South,185,6.0,12.0,34,0.00,,,0.07,WUHU216DAVISVP2,2013-04-22 23:49:00,
2013-04-22 19:50:00,64.7,35.7,29.28,SSW,197,4.0,12.0,34,0.00,,,0.07,WUHU216DAVISVP2,2013-04-22 23:50:00,
2013-04-22 19:51:00,64.7,35.7,29.28,South,169,2.0,12.0,34,0.00,,,0.07,WUHU216DAVISVP2,2013-04-22 23:51:00,
2013-04-22 19:54:00,64.6,35.6,29.28,SSW,195,5.0,12.0,34,0.00,,,0.07,WUHU216DAVISVP2,2013-04-22 23:54:00,
2013-04-22 19:55:00,64.6,35.6,29.28,SSW,197,0.0,12.0,34,0.00,,,0.07,WUHU216DAVISVP2,2013-04-22 23:55:00,
2013-04-22 19:56:00,64.5,35.3,29.28,SSW,197,1.0,12.0,34,0.00,,,0.07,WUHU216DAVISVP2,2013-04-22 23:56:00,
2013-04-22 20:00:00,64.4,35.2,29.28,SSW,196,0.0,12.0,34,0.00,,,0.07,WUHU216DAVISVP2,2013-04-23 00:00:00,
2013-04-22 20:01:00,64.3,35.9,29.28,South,188,3.0,12.0,35,0.00,,,0.07,WUHU216DAVISVP2,2013-04-23 00:01:00,
2013-04-22 20:05:00,64.1,35.9,29.28,SSE,168,5.0,10.0,35,0.00,,,0.07,WUHU216DAVISVP2,2013-04-23 00:05:00,
2013-04-22 20:06:00,64.1,35.9,29.27,South,183,1.0,10.0,35,0.00,,,0.07,WUHU216DAVISVP2,2013-04-23 00:06:00,
2013-04-22 20:10:00,63.9,36.4,29.28,South,185,2.0,10.0,36,0.00,,,0.07,WUHU216DAVISVP2,2013-04-23 00:10:00,
2013-04-22 20:11:00,63.8,36.3,29.28,South,185,2.0,10.0,36,0.00,,,0.07,WUHU216DAVISVP2,2013-04-23 00:11:00,
2013-04-22 20:15:00,63.6,36.0,29.28,SSE,158,4.0,10.0,36,0.00,,,0.07,WUHU216DAVISVP2,2013-04-23 00:15:00,
2013-04-22 20:16:00,63.6,36.0,29.28,SSE,160,1.0,10.0,36,0.00,,,0.07,WUHU216DAVISVP2,2013-04-23 00:16:00,
2013-04-22 20:21:00,63.3,36.6,29.28,SSE,168,5.0,10.0,37,0.00,,,0.07,WUHU216DAVISVP2,2013-04-23 00:21:00,
2013-04-22 20:22:00,63.3,36.6,29.27,SSE,168,2.0,10.0,37,0.00,,,0.07,WUHU216DAVISVP2,2013-04-23 00:22:00,
2013-04-22 20:26:00,63.1,36.4,29.28,SSE,156,1.0,7.0,37,0.00,,,0.07,WUHU216DAVISVP2,2013-04-23 00:26:00,
2013-04-22 20:27:00,63.0,36.3,29.28,SSE,156,1.0,7.0,37,0.00,,,0.07,WUHU216DAVISVP2,2013-04-23 00:27:00,
2013-04-22 20:31:00,62.9,36.9,29.28,South,180,2.0,7.0,38,0.00,,,0.07,WUHU216DAVISVP2,2013-04-23 00:31:00,
2013-04-22 20:32:00,62.9,36.9,29.28,South,180,2.0,7.0,38,0.00,,,0.07,WUHU216DAVISVP2,2013-04-23 00:32:00,
2013-04-22 20:36:00,62.6,36.5,29.28,South,180,2.0,7.0,38,0.00,,,0.07,WUHU216DAVISVP2,2013-04-23 00:36:00,
2013-04-22 20:37:00,62.6,36.5,29.28,South,180,0.0,7.0,38,0.00,,,0.07,WUHU216DAVISVP2,2013-04-23 00:37:00,
2013-04-22 20:41:00,62.3,37.0,29.28,South,180,1.0,5.0,39,0.00,,,0.07,WUHU216DAVISVP2,2013-04-23 00:41:00,
2013-04-22 20:42:00,62.3,36.9,29.28,South,180,1.0,5.0,39,0.00,,,0.07,WUHU216DAVISVP2,2013-04-23 00:42:00,
2013-04-22 20:43:00,62.3,36.9,29.28,South,180,1.0,5.0,39,0.00,,,0.07,WUHU216DAVISVP2,2013-04-23 00:43:00,
2013-04-22 20:46:00,62.1,36.7,29.28,South,180,2.0,5.0,39,0.00,,,0.07,WUHU216DAVISVP2,2013-04-23 00:46:00,
2013-04-22 20:47:00,62.1,36.7,29.28,South,180,0.0,5.0,39,0.00,,,0.07,WUHU216DAVISVP2,2013-04-23 00:47:00,
2013-04-22 20:48:00,62.1,36.7,29.28,South,180,1.0,5.0,39,0.00,,,0.07,WUHU216DAVISVP2,2013-04-23 00:48:00,
2013-04-22 20:52:00,61.9,36.5,29.28,SSE,158,0.0,5.0,39,0.00,,,0.07,WUHU216DAVISVP2,2013-04-23 00:52:00,
2013-04-22 20:53:00,61.9,37.3,29.28,SE,143,0.0,5.0,40,0.00,,,0.07,WUHU216DAVISVP2,2013-04-23 00:53:00,
2013-04-22 20:57:00,61.7,37.1,29.28,SSE,164,0.0,5.0,40,0.00,,,0.07,WUHU216DAVISVP2,2013-04-23 00:57:00,
2013-04-22 20:58:00,61.6,37.0,29.28,SSE,163,2.0,5.0,40,0.00,,,0.07,WUHU216DAVISVP2,2013-04-23 00:58:00,
2013-04-22 21:02:00,61.3,37.3,29.28,SE,132,4.0,4.0,41,0.00,,,0.07,WUHU216DAVISVP2,2013-04-23 01:02:00,
2013-04-22 21:03:00,61.3,37.3,29.28,SE,131,1.0,5.0,41,0.00,,,0.07,WUHU216DAVISVP2,2013-04-23 01:03:00,
2013-04-22 21:07:00,61.0,37.6,29.28,SE,131,1.0,5.0,42,0.00,,,0.07,WUHU216DAVISVP2,2013-04-23 01:07:00,
2013-04-22 21:08:00,60.9,37.5,29.28,SE,131,1.0,5.0,42,0.00,,,0.07,WUHU216DAVISVP2,2013-04-23 01:08:00,
2013-04-22 21:12:00,60.6,37.3,29.28,SSE,154,0.0,5.0,42,0.00,,,0.07,WUHU216DAVISVP2,2013-04-23 01:12:00,
2013-04-22 21:13:00,60.6,37.9,29.28,SE,130,2.0,5.0,43,0.00,,,0.07,WUHU216DAVISVP2,2013-04-23 01:13:00,
2013-04-22 21:14:00,60.6,37.9,29.28,SE,130,1.0,5.0,43,0.00,,,0.07,WUHU216DAVISVP2,2013-04-23 01:14:00,
2013-04-22 21:17:00,60.4,37.7,29.28,SE,130,1.0,5.0,43,0.00,,,0.07,WUHU216DAVISVP2,2013-04-23 01:17:00,
2013-04-22 21:18:00,60.3,37.6,29.28,SE,131,1.0,5.0,43,0.00,,,0.07,WUHU216DAVISVP2,2013-04-23 01:18:00,
2013-04-22 21:19:00,60.3,37.6,29.28,SE,131,2.0,5.0,43,0.00,,,0.07,WUHU216DAVISVP2,2013-04-23 01:19:00,
2013-04-22 21:23:00,60.0,37.9,29.28,SE,130,2.0,4.0,44,0.00,,,0.07,WUHU216DAVISVP2,2013-04-23 01:23:00,
2013-04-22 21:24:00,60.0,37.9,29.28,SE,131,2.0,4.0,44,0.00,,,0.07,WUHU216DAVISVP2,2013-04-23 01:24:00,
2013-04-22 21:28:00,59.8,37.7,29.28,SE,139,1.0,5.0,44,0.00,,,0.07,WUHU216DAVISVP2,2013-04-23 01:28:00,
2013-04-22 21:29:00,59.8,37.7,29.28,ESE,123,1.0,5.0,44,0.00,,,0.07,WUHU216DAVISVP2,2013-04-23 01:29:00,
2013-04-22 21:30:00,59.8,37.7,29.28,ESE,123,2.0,5.0,44,0.00,,,0.07,WUHU216DAVISVP2,2013-04-23 01:30:00,
2013-04-22 21:33:00,59.6,37.6,29.29,SE,135,3.0,5.0,44,0.00,,,0.07,WUHU216DAVISVP2,2013-04-23 01:33:00,
2013-04-22 21:34:00,59.6,37.6,29.29,SE,136,2.0,5.0,44,0.00,,,0.07,WUHU216DAVISVP2,2013-04-23 01:34:00,
2013-04-22 21:35:00,59.6,37.6,29.29,SE,135,2.0,5.0,44,0.00,,,0.07,WUHU216DAVISVP2,2013-04-23 01:35:00,
2013-04-22 21:38:00,59.6,37.6,29.29,ESE,120,2.0,5.0,44,0.00,,,0.07,WUHU216DAVISVP2,2013-04-23 01:38:00,
2013-04-22 21:39:00,59.6,37.6,29.29,SE,135,4.0,5.0,44,0.00,,,0.07,WUHU216DAVISVP2,2013-04-23 01:39:00,
2013-04-22 21:40:00,59.6,37.6,29.29,SE,134,1.0,5.0,44,0.00,,,0.07,WUHU216DAVISVP2,2013-04-23 01:40:00,
2013-04-22 21:43:00,59.6,37.6,29.29,SE,127,1.0,5.0,44,0.00,,,0.07,WUHU216DAVISVP2,2013-04-23 01:43:00,
2013-04-22 21:44:00,59.6,37.6,29.29,SE,127,1.0,5.0,44,0.00,,,0.07,WUHU216DAVISVP2,2013-04-23 01:44:00,
2013-04-22 21:45:00,59.6,37.6,29.29,SE,127,1.0,5.0,44,0.00,,,0.07,WUHU216DAVISVP2,2013-04-23 01:45:00,
2013-04-22 21:48:00,59.6,38.1,29.29,SE,127,0.0,5.0,45,0.00,,,0.07,WUHU216DAVISVP2,2013-04-23 01:48:00,
2013-04-22 21:50:00,59.5,38.1,29.29,SE,127,0.0,5.0,45,0.00,,,0.07,WUHU216DAVISVP2,2013-04-23 01:50:00,
2013-04-22 21:53:00,59.3,37.9,29.29,SE,127,0.0,5.0,45,0.00,,,0.07,WUHU216DAVISVP2,2013-04-23 01:53:00,
2013-04-22 21:55:00,59.2,37.8,29.29,SE,127,0.0,5.0,45,0.00,,,0.07,WUHU216DAVISVP2,2013-04-23 01:55:00,
2013-04-22 21:58:00,58.9,38.1,29.29,SE,127,0.0,5.0,46,0.00,,,0.07,WUHU216DAVISVP2,2013-04-23 01:58:00,
2013-04-22 22:00:00,58.9,38.1,29.29,SE,127,0.0,4.0,46,0.00,,,0.07,WUHU216DAVISVP2,2013-04-23 02:00:00,
2013-04-22 22:01:00,58.8,38.0,29.29,SE,127,0.0,4.0,46,0.00,,,0.07,WUHU216DAVISVP2,2013-04-23 02:01:00,
2013-04-22 22:03:00,58.6,38.4,29.29,SE,127,0.0,2.0,47,0.00,,,0.07,WUHU216DAVISVP2,2013-04-23 02:03:00,
2013-04-22 22:05:00,58.5,38.3,29.29,SE,127,0.0,2.0,47,0.00,,,0.07,WUHU216DAVISVP2,2013-04-23 02:05:00,
2013-04-22 22:06:00,58.5,38.3,29.29,SE,127,0.0,2.0,47,0.00,,,0.07,WUHU216DAVISVP2,2013-04-23 02:06:00,
2013-04-22 22:08:00,58.3,38.1,29.29,SE,127,0.0,2.0,47,0.00,,,0.07,WUHU216DAVISVP2,2013-04-23 02:08:00,
2013-04-22 22:10:00,58.2,38.0,29.29,SE,127,0.0,2.0,47,0.00,,,0.07,WUHU216DAVISVP2,2013-04-23 02:10:00,
2013-04-22 22:11:00,58.1,38.5,29.28,SE,127,0.0,2.0,48,0.00,,,0.07,WUHU216DAVISVP2,2013-04-23 02:11:00,
2013-04-22 22:13:00,58.0,38.4,29.29,SE,127,0.0,2.0,48,0.00,,,0.07,WUHU216DAVISVP2,2013-04-23 02:13:00,
2013-04-22 22:15:00,57.8,38.2,29.29,SE,127,0.0,2.0,48,0.00,,,0.07,WUHU216DAVISVP2,2013-04-23 02:15:00,
2013-04-22 22:16:00,57.8,38.7,29.29,SE,127,0.0,2.0,49,0.00,,,0.07,WUHU216DAVISVP2,2013-04-23 02:16:00,
2013-04-22 22:17:00,57.7,38.6,29.29,SE,127,0.0,2.0,49,0.00,,,0.07,WUHU216DAVISVP2,2013-04-23 02:17:00,
2013-04-22 22:19:00,57.6,38.6,29.29,SE,127,0.0,2.0,49,0.00,,,0.07,WUHU216DAVISVP2,2013-04-23 02:19:00,
2013-04-22 22:20:00,57.5,38.5,29.29,SE,127,0.0,2.0,49,0.00,,,0.07,WUHU216DAVISVP2,2013-04-23 02:20:00,
2013-04-22 22:21:00,57.4,38.4,29.29,SE,127,0.0,2.0,49,0.00,,,0.07,WUHU216DAVISVP2,2013-04-23 02:21:00,
2013-04-22 22:22:00,57.4,38.4,29.29,SE,127,0.0,2.0,49,0.00,,,0.07,WUHU216DAVISVP2,2013-04-23 02:22:00,
2013-04-22 22:24:00,57.2,38.7,29.29,SE,127,0.0,1.0,50,0.00,,,0.07,WUHU216DAVISVP2,2013-04-23 02:24:00,
2013-04-22 22:26:00,57.1,38.6,29.29,SE,127,0.0,1.0,50,0.00,,,0.07,WUHU216DAVISVP2,2013-04-23 02:26:00,
2013-04-22 22:27:00,57.0,38.5,29.29,SE,127,0.0,1.0,50,0.00,,,0.07,WUHU216DAVISVP2,2013-04-23 02:27:00,
2013-04-22 22:29:00,56.8,38.4,29.29,SE,127,0.0,1.0,50,0.00,,,0.07,WUHU216DAVISVP2,2013-04-23 02:29:00,
2013-04-22 22:31:00,56.7,38.3,29.29,SE,127,0.0,1.0,50,0.00,,,0.07,WUHU216DAVISVP2,2013-04-23 02:31:00,
2013-04-22 22:32:00,56.6,38.7,29.29,SE,127,0.0,1.0,51,0.00,,,0.07,WUHU216DAVISVP2,2013-04-23 02:32:00,
2013-04-22 22:34:00,56.5,38.6,29.29,SE,127,0.0,1.0,51,0.00,,,0.07,WUHU216DAVISVP2,2013-04-23 02:34:00,
2013-04-22 22:36:00,56.4,39.0,29.29,SE,127,0.0,1.0,52,0.00,,,0.07,WUHU216DAVISVP2,2013-04-23 02:36:00,
2013-04-22 22:37:00,56.4,39.0,29.29,SE,127,0.0,1.0,52,0.00,,,0.07,WUHU216DAVISVP2,2013-04-23 02:37:00,
2013-04-22 22:40:00,56.2,38.8,29.29,SE,127,1.0,1.0,52,0.00,,,0.07,WUHU216DAVISVP2,2013-04-23 02:40:00,
2013-04-22 22:41:00,56.1,38.7,29.29,SE,127,0.0,1.0,52,0.00,,,0.07,WUHU216DAVISVP2,2013-04-23 02:41:00,
2013-04-22 22:42:00,56.0,38.6,29.29,SE,127,0.0,1.0,52,0.00,,,0.07,WUHU216DAVISVP2,2013-04-23 02:42:00,
2013-04-22 22:45:00,55.9,39.1,29.29,SE,127,0.0,1.0,53,0.00,,,0.07,WUHU216DAVISVP2,2013-04-23 02:45:00,
2013-04-22 22:47:00,55.8,39.0,29.29,SE,127,0.0,1.0,53,0.00,,,0.07,WUHU216DAVISVP2,2013-04-23 02:47:00,
2013-04-22 22:48:00,55.7,38.9,29.28,SE,127,0.0,1.0,53,0.00,,,0.07,WUHU216DAVISVP2,2013-04-23 02:48:00,
2013-04-22 22:50:00,55.7,38.9,29.28,SE,127,0.0,1.0,53,0.00,,,0.07,WUHU216DAVISVP2,2013-04-23 02:50:00,
2013-04-22 22:52:00,55.6,38.8,29.29,SE,127,0.0,1.0,53,0.00,,,0.07,WUHU216DAVISVP2,2013-04-23 02:52:00,
2013-04-22 22:53:00,55.5,38.7,29.29,SE,127,0.0,1.0,53,0.00,,,0.07,WUHU216DAVISVP2,2013-04-23 02:53:00,
2013-04-22 22:54:00,55.5,38.7,29.28,SE,127,0.0,1.0,53,0.00,,,0.07,WUHU216DAVISVP2,2013-04-23 02:54:00,
2013-04-22 22:55:00,55.4,39.1,29.29,SE,127,0.0,1.0,54,0.00,,,0.07,WUHU216DAVISVP2,2013-04-23 02:55:00,
2013-04-22 22:57:00,55.3,38.5,29.29,SE,127,0.0,1.0,53,0.00,,,0.07,WUHU216DAVISVP2,2013-04-23 02:57:00,
2013-04-22 22:58:00,55.3,38.5,29.29,SE,127,0.0,1.0,53,0.00,,,0.07,WUHU216DAVISVP2,2013-04-23 02:58:00,
2013-04-22 22:59:00,55.3,38.5,29.29,SE,127,0.0,0.0,53,0.00,,,0.07,WUHU216DAVISVP2,2013-04-23 02:59:00,
2013-04-22 23:00:00,55.3,38.5,29.29,SE,127,0.0,0.0,53,0.00,,,0.07,WUHU216DAVISVP2,2013-04-23 03:00:00,
2013-04-22 23:02:00,55.3,38.5,29.29,SE,127,1.0,2.0,53,0.00,,,0.07,WUHU216DAVISVP2,2013-04-23 03:02:00,
2013-04-22 23:03:00,55.4,38.6,29.29,SE,127,0.0,2.0,53,0.00,,,0.07,WUHU216DAVISVP2,2013-04-23 03:03:00,
2013-04-22 23:04:00,55.4,38.6,29.29,SE,127,0.0,2.0,53,0.00,,,0.07,WUHU216DAVISVP2,2013-04-23 03:04:00,
2013-04-22 23:05:00,55.4,38.6,29.28,SE,127,0.0,2.0,53,0.00,,,0.07,WUHU216DAVISVP2,2013-04-23 03:05:00,
2013-04-22 23:08:00,55.4,38.6,29.28,SE,127,0.0,2.0,53,0.00,,,0.07,WUHU216DAVISVP2,2013-04-23 03:08:00,
2013-04-22 23:09:00,55.4,38.6,29.28,SE,127,0.0,2.0,53,0.00,,,0.07,WUHU216DAVISVP2,2013-04-23 03:09:00,
2013-04-22 23:10:00,55.4,38.6,29.28,SE,127,0.0,2.0,53,0.00,,,0.07,WUHU216DAVISVP2,2013-04-23 03:10:00,
2013-04-22 23:13:00,55.4,38.6,29.28,SE,127,0.0,2.0,53,0.00,,,0.07,WUHU216DAVISVP2,2013-04-23 03:13:00,
2013-04-22 23:14:00,55.4,38.6,29.28,SE,127,0.0,2.0,53,0.00,,,0.07,WUHU216DAVISVP2,2013-04-23 03:14:00,
2013-04-22 23:16:00,55.4,38.6,29.28,SE,127,1.0,2.0,53,0.00,,,0.07,WUHU216DAVISVP2,2013-04-23 03:16:00,
2013-04-22 23:18:00,55.5,38.7,29.28,SSE,152,0.0,4.0,53,0.00,,,0.07,WUHU216DAVISVP2,2013-04-23 03:18:00,
2013-04-22 23:19:00,55.5,38.7,29.28,SSE,152,0.0,4.0,53,0.00,,,0.07,WUHU216DAVISVP2,2013-04-23 03:19:00,
2013-04-22 23:21:00,55.5,38.7,29.28,SSE,152,0.0,4.0,53,0.00,,,0.07,WUHU216DAVISVP2,2013-04-23 03:21:00,
2013-04-22 23:23:00,55.4,38.6,29.28,SSE,152,0.0,4.0,53,0.00,,,0.07,WUHU216DAVISVP2,2013-04-23 03:23:00,
2013-04-22 23:24:00,55.3,38.5,29.28,SSE,152,1.0,4.0,53,0.00,,,0.07,WUHU216DAVISVP2,2013-04-23 03:24:00,
2013-04-22 23:26:00,55.3,38.5,29.28,SSE,152,0.0,4.0,53,0.00,,,0.07,WUHU216DAVISVP2,2013-04-23 03:26:00,
2013-04-22 23:28:00,55.2,38.9,29.28,SSE,152,0.0,4.0,54,0.00,,,0.07,WUHU216DAVISVP2,2013-04-23 03:28:00,
2013-04-22 23:30:00,55.1,38.8,29.28,SSE,152,0.0,4.0,54,0.00,,,0.07,WUHU216DAVISVP2,2013-04-23 03:30:00,
2013-04-22 23:31:00,55.1,38.8,29.28,SSE,152,0.0,4.0,54,0.00,,,0.07,WUHU216DAVISVP2,2013-04-23 03:31:00,
2013-04-22 23:33:00,54.9,38.6,29.28,SSE,152,0.0,4.0,54,0.00,,,0.07,WUHU216DAVISVP2,2013-04-23 03:33:00,
2013-04-22 23:35:00,54.8,38.9,29.28,SSE,152,1.0,4.0,55,0.00,,,0.07,WUHU216DAVISVP2,2013-04-23 03:35:00,
2013-04-22 23:36:00,54.8,38.9,29.28,SSE,152,2.0,2.0,55,0.00,,,0.07,WUHU216DAVISVP2,2013-04-23 03:36:00,
2013-04-22 23:38:00,54.8,38.9,29.28,SE,139,2.0,2.0,55,0.00,,,0.07,WUHU216DAVISVP2,2013-04-23 03:38:00,
2013-04-22 23:39:00,54.8,38.9,29.28,SE,139,1.0,2.0,55,0.00,,,0.07,WUHU216DAVISVP2,2013-04-23 03:39:00,
2013-04-22 23:40:00,54.9,39.0,29.28,SSE,147,1.0,4.0,55,0.00,,,0.07,WUHU216DAVISVP2,2013-04-23 03:40:00,
2013-04-22 23:42:00,55.0,38.7,29.28,SSE,147,0.0,4.0,54,0.00,,,0.07,WUHU216DAVISVP2,2013-04-23 03:42:00,
2013-04-22 23:43:00,55.0,38.7,29.28,SSE,147,0.0,4.0,54,0.00,,,0.07,WUHU216DAVISVP2,2013-04-23 03:43:00,
2013-04-22 23:44:00,55.1,38.8,29.28,SSE,147,0.0,4.0,54,0.00,,,0.07,WUHU216DAVISVP2,2013-04-23 03:44:00,
2013-04-22 23:46:00,55.0,38.7,29.28,SSE,147,0.0,4.0,54,0.00,,,0.07,WUHU216DAVISVP2,2013-04-23 03:46:00,
2013-04-22 23:47:00,55.0,38.7,29.28,SSE,147,0.0,4.0,54,0.00,,,0.07,WUHU216DAVISVP2,2013-04-23 03:47:00,
2013-04-22 23:48:00,55.0,38.7,29.28,SSE,147,1.0,4.0,54,0.00,,,0.07,WUHU216DAVISVP2,2013-04-23 03:48:00,
2013-04-22 23:49:00,55.0,38.7,29.28,SSE,147,1.0,4.0,54,0.00,,,0.07,WUHU216DAVISVP2,2013-04-23 03:49:00,
2013-04-22 23:51:00,55.0,38.7,29.28,SSE,147,0.0,4.0,54,0.00,,,0.07,WUHU216DAVISVP2,2013-04-23 03:51:00,
2013-04-22 23:52:00,55.0,38.7,29.28,SSE,147,0.0,4.0,54,0.00,,,0.07,WUHU216DAVISVP2,2013-04-23 03:52:00,
2013-04-22 23:54:00,55.0,38.6,29.28,SSE,147,0.0,4.0,54,0.00,,,0.07,WUHU216DAVISVP2,2013-04-23 03:54:00,
2013-04-22 23:56:00,55.0,38.6,29.28,SSE,147,0.0,4.0,54,0.00,,,0.07,WUHU216DAVISVP2,2013-04-23 03:56:00,
2013-04-22 23:57:00,55.0,38.6,29.28,SSE,147,0.0,4.0,54,0.00,,,0.07,WUHU216DAVISVP2,2013-04-23 03:57:00,
2013-04-22 23:59:00,55.0,38.6,29.28,SSE,147,0.0,4.0,54,0.00,,,0.07,WUHU216DAVISVP2,2013-04-23 03:59:00,